Observation data for Odell on 11/14/2019      Previous  Date  Next       Current Mesonet Observations  Soil Data  Daily Summary Page  Observations in Plain Language
KOD1 140600Z 08006KT 01/M05 A3011 RMK A01 T00051052  RH  066%=      5-min Rain = 0
KOD1 140601Z 08005KT 01/M05 A3011 RMK A01 T00051052  RH  066%=      5-min Rain = 0
KOD1 140602Z 08005KT 01/M05 A3011 RMK A01 T00051052  RH  066%=      5-min Rain = 0
KOD1 140603Z 08005KT 00/M05 A3011 RMK A01 T00041052  RH  066%=      5-min Rain = 0
KOD1 140604Z 08005KT 00/M05 A3011 RMK A01 T00041053  RH  066%=      5-min Rain = 0
KOD1 140605Z 08005KT 00/M05 A3011 RMK A01 T00031053  RH  066%=      5-min Rain = 0
KOD1 140606Z 08005KT 00/M05 A3012 RMK A01 T00031053  RH  066%=      5-min Rain = 0
KOD1 140607Z 08005KT 00/M05 A3012 RMK A01 T00021053  RH  066%=      5-min Rain = 0
KOD1 140608Z 09005KT 00/M05 A3012 RMK A01 T00031053  RH  066%=      5-min Rain = 0
KOD1 140609Z 08005KT 00/M05 A3012 RMK A01 T00031053  RH  066%=      5-min Rain = 0
KOD1 140610Z 09005KT 00/M05 A3012 RMK A01 T00031053  RH  066%=      5-min Rain = 0
KOD1 140611Z 08005KT 00/M05 A3012 RMK A01 T00021053  RH  066%=      5-min Rain = 0
KOD1 140612Z 08006KT 00/M05 A3012 RMK A01 T00021053  RH  066%=      5-min Rain = 0
KOD1 140613Z 08006KT 00/M05 A3012 RMK A01 T00021053  RH  066%=      5-min Rain = 0
KOD1 140614Z 08005KT 00/M05 A3012 RMK A01 T00021053  RH  066%=      5-min Rain = 0
KOD1 140615Z 08005KT 00/M05 A3012 RMK A01 T00021053  RH  066%=      5-min Rain = 0
KOD1 140616Z 08005KT 00/M05 A3012 RMK A01 T00021053  RH  066%=      5-min Rain = 0
KOD1 140617Z 08005KT 00/M05 A3012 RMK A01 T00031053  RH  066%=      5-min Rain = 0
KOD1 140618Z 08005KT 00/M05 A3012 RMK A01 T00031053  RH  066%=      5-min Rain = 0
KOD1 140619Z 08005KT 00/M05 A3012 RMK A01 T00021054  RH  066%=      5-min Rain = 0
KOD1 140620Z 08005KT 00/M05 A3012 RMK A01 T00021054  RH  066%=      5-min Rain = 0
KOD1 140621Z 08005KT 00/M05 A3012 RMK A01 T00011054  RH  066%=      5-min Rain = 0
KOD1 140622Z 08005KT 00/M05 A3012 RMK A01 T00011054  RH  067%=      5-min Rain = 0
KOD1 140623Z 07005KT 00/M05 A3012 RMK A01 T00011054  RH  067%=      5-min Rain = 0
KOD1 140624Z 08005KT 00/M05 A3012 RMK A01 T00011054  RH  067%=      5-min Rain = 0
KOD1 140625Z 08005KT 00/05 A3012 RMK A01 T00000-54  RH  067%=      5-min Rain = 0
KOD1 140626Z 08005KT M00/M06 A3012 RMK A01 T10011055  RH  067%=      5-min Rain = 0
KOD1 140627Z 07005KT M00/M06 A3012 RMK A01 T10031056  RH  067%=      5-min Rain = 0
KOD1 140628Z 08005KT M01/M06 A3012 RMK A01 T10051056  RH  068%=      5-min Rain = 0
KOD1 140629Z 08005KT M01/M06 A3012 RMK A01 T10061055  RH  069%=      5-min Rain = 0
KOD1 140630Z 07005KT M01/M06 A3013 RMK A01 T10071055  RH  070%=      5-min Rain = 0
KOD1 140631Z 07004KT M01/M06 A3013 RMK A01 T10081055  RH  071%=      5-min Rain = 0
KOD1 140632Z 07004KT M01/M06 A3013 RMK A01 T10091055  RH  071%=      5-min Rain = 0
KOD1 140633Z 07004KT M01/M06 A3013 RMK A01 T10101055  RH  071%=      5-min Rain = 0
KOD1 140634Z 07004KT M01/M06 A3013 RMK A01 T10121055  RH  072%=      5-min Rain = 0
KOD1 140635Z 08004KT M01/M06 A3013 RMK A01 T10121055  RH  073%=      5-min Rain = 0
KOD1 140636Z 08004KT M01/M06 A3013 RMK A01 T10131055  RH  073%=      5-min Rain = 0
KOD1 140637Z 08005KT M01/M06 A3013 RMK A01 T10141055  RH  074%=      5-min Rain = 0
KOD1 140638Z 08004KT M02/M06 A3013 RMK A01 T10151055  RH  074%=      5-min Rain = 0
KOD1 140639Z 08004KT M02/M06 A3013 RMK A01 T10151055  RH  074%=      5-min Rain = 0
KOD1 140640Z 08004KT M02/M06 A3013 RMK A01 T10161055  RH  075%=      5-min Rain = 0
KOD1 140641Z 07004KT M02/M06 A3013 RMK A01 T10171055  RH  075%=      5-min Rain = 0
KOD1 140642Z 07004KT M02/M06 A3013 RMK A01 T10181056  RH  075%=      5-min Rain = 0
KOD1 140643Z 07004KT M02/M06 A3013 RMK A01 T10191056  RH  076%=      5-min Rain = 0
KOD1 140644Z 07004KT M02/M06 A3013 RMK A01 T10191055  RH  076%=      5-min Rain = 0
KOD1 140645Z 08004KT M02/M05 A3013 RMK A01 T10181054  RH  076%=      5-min Rain = 0
KOD1 140646Z 08004KT M02/M05 A3013 RMK A01 T10171053  RH  076%=      5-min Rain = 0
KOD1 140647Z 08004KT M02/M05 A3013 RMK A01 T10161054  RH  075%=      5-min Rain = 0
KOD1 140648Z 07004KT M02/M06 A3014 RMK A01 T10171055  RH  075%=      5-min Rain = 0
KOD1 140649Z 07004KT M02/M06 A3014 RMK A01 T10161055  RH  075%=      5-min Rain = 0
KOD1 140650Z 07004KT M02/M06 A3014 RMK A01 T10161055  RH  075%=      5-min Rain = 0
KOD1 140651Z 07004KT M02/M06 A3014 RMK A01 T10151055  RH  074%=      5-min Rain = 0
KOD1 140652Z 07004KT M02/M06 A3014 RMK A01 T10161056  RH  074%=      5-min Rain = 0
KOD1 140653Z 07004KT M02/M06 A3014 RMK A01 T10161055  RH  074%=      5-min Rain = 0
KOD1 140654Z 07003KT M02/M06 A3014 RMK A01 T10161055  RH  075%=      5-min Rain = 0
KOD1 140655Z 07003KT M02/M06 A3014 RMK A01 T10161055  RH  075%=      5-min Rain = 0
KOD1 140656Z 07003KT M02/M06 A3014 RMK A01 T10171056  RH  075%=      5-min Rain = 0
KOD1 140657Z 07003KT M02/M06 A3014 RMK A01 T10181056  RH  075%=      5-min Rain = 0
KOD1 140658Z 07003KT M02/M06 A3014 RMK A01 T10191057  RH  075%=      5-min Rain = 0
KOD1 140659Z 07003KT M02/M06 A3014 RMK A01 T10191057  RH  075%=      5-min Rain = 0
KOD1 140700Z 07003KT M02/M06 A3014 RMK A01 T10201057  RH  076%=      5-min Rain = 0
KOD1 140701Z 06002KT M02/M06 A3014 RMK A01 T10211057  RH  076%=      5-min Rain = 0
KOD1 140702Z 06002KT M02/M06 A3014 RMK A01 T10211057  RH  076%=      5-min Rain = 0
KOD1 140703Z 06003KT M02/M06 A3014 RMK A01 T10211057  RH  076%=      5-min Rain = 0
KOD1 140704Z 06003KT M02/M06 A3014 RMK A01 T10211057  RH  077%=      5-min Rain = 0
KOD1 140705Z 07003KT M02/M06 A3014 RMK A01 T10211056  RH  077%=      5-min Rain = 0
KOD1 140706Z 06003KT M02/M06 A3014 RMK A01 T10221057  RH  077%=      5-min Rain = 0
KOD1 140707Z 06003KT M02/M06 A3014 RMK A01 T10221057  RH  077%=      5-min Rain = 0
KOD1 140708Z 07004KT M02/M06 A3014 RMK A01 T10231057  RH  077%=      5-min Rain = 0
KOD1 140709Z 07004KT M02/M06 A3014 RMK A01 T10231057  RH  078%=      5-min Rain = 0
KOD1 140710Z 06004KT M02/M06 A3014 RMK A01 T10231057  RH  078%=      5-min Rain = 0
KOD1 140711Z 06004KT M02/M06 A3014 RMK A01 T10231056  RH  078%=      5-min Rain = 0
KOD1 140712Z 06004KT M02/M06 A3014 RMK A01 T10241056  RH  078%=      5-min Rain = 0
KOD1 140713Z 06004KT M02/M06 A3014 RMK A01 T10231055  RH  079%=      5-min Rain = 0
KOD1 140714Z 06004KT M02/M05 A3015 RMK A01 T10231054  RH  079%=      5-min Rain = 0
KOD1 140715Z 06004KT M02/M06 A3015 RMK A01 T10231055  RH  079%=      5-min Rain = 0
KOD1 140716Z 06004KT M02/M06 A3015 RMK A01 T10231055  RH  079%=      5-min Rain = 0
KOD1 140717Z 05004KT M02/M06 A3015 RMK A01 T10231055  RH  079%=      5-min Rain = 0
KOD1 140718Z 05004KT M02/M06 A3015 RMK A01 T10231055  RH  079%=      5-min Rain = 0
KOD1 140719Z 05004KT M02/M05 A3015 RMK A01 T10231054  RH  079%=      5-min Rain = 0
KOD1 140720Z 04004KT M02/M05 A3015 RMK A01 T10231054  RH  079%=      5-min Rain = 0
KOD1 140721Z 04004KT M02/M05 A3015 RMK A01 T10231054  RH  079%=      5-min Rain = 0
KOD1 140722Z 04004KT M02/M05 A3015 RMK A01 T10231054  RH  079%=      5-min Rain = 0
KOD1 140723Z 04004KT M02/M05 A3015 RMK A01 T10231054  RH  079%=      5-min Rain = 0
KOD1 140724Z 04004KT M02/M05 A3015 RMK A01 T10231054  RH  079%=      5-min Rain = 0
KOD1 140725Z 04004KT M02/M05 A3015 RMK A01 T10231054  RH  079%=      5-min Rain = 0
KOD1 140726Z 04004KT M02/M06 A3015 RMK A01 T10241055  RH  079%=      5-min Rain = 0
KOD1 140727Z 04004KT M02/M06 A3015 RMK A01 T10241055  RH  079%=      5-min Rain = 0
KOD1 140728Z 04004KT M02/M06 A3015 RMK A01 T10241055  RH  079%=      5-min Rain = 0
KOD1 140729Z 04004KT M02/M06 A3015 RMK A01 T10241055  RH  079%=      5-min Rain = 0
KOD1 140730Z 04004KT M02/M06 A3015 RMK A01 T10241055  RH  079%=      5-min Rain = 0
KOD1 140731Z 04004KT M03/M06 A3015 RMK A01 T10251056  RH  079%=      5-min Rain = 0
KOD1 140732Z 04004KT M03/M06 A3015 RMK A01 T10261057  RH  079%=      5-min Rain = 0
KOD1 140733Z 03004KT M03/M06 A3015 RMK A01 T10271058  RH  079%=      5-min Rain = 0
KOD1 140734Z 03004KT M03/M06 A3015 RMK A01 T10271058  RH  079%=      5-min Rain = 0
KOD1 140735Z 03004KT M03/M06 A3015 RMK A01 T10271057  RH  080%=      5-min Rain = 0
KOD1 140736Z 03004KT M03/M06 A3015 RMK A01 T10271056  RH  080%=      5-min Rain = 0
KOD1 140737Z 03004KT M03/M06 A3015 RMK A01 T10271056  RH  080%=      5-min Rain = 0
KOD1 140738Z 02004KT M03/M06 A3016 RMK A01 T10271056  RH  080%=      5-min Rain = 0
KOD1 140739Z 02004KT M03/M06 A3016 RMK A01 T10271055  RH  081%=      5-min Rain = 0
KOD1 140740Z 02004KT M03/M05 A3016 RMK A01 T10261054  RH  081%=      5-min Rain = 0
KOD1 140741Z 02004KT M03/M05 A3016 RMK A01 T10261054  RH  081%=      5-min Rain = 0
KOD1 140742Z 02004KT M03/M06 A3016 RMK A01 T10271055  RH  081%=      5-min Rain = 0
KOD1 140743Z 01004KT M03/M06 A3016 RMK A01 T10271055  RH  081%=      5-min Rain = 0
KOD1 140744Z 01004KT M03/M06 A3016 RMK A01 T10281055  RH  082%=      5-min Rain = 0
KOD1 140745Z 01004KT M03/M06 A3016 RMK A01 T10291055  RH  082%=      5-min Rain = 0
KOD1 140746Z 00005KT M03/M06 A3016 RMK A01 T10291056  RH  082%=      5-min Rain = 0
KOD1 140747Z 00005KT M03/M06 A3016 RMK A01 T10291055  RH  083%=      5-min Rain = 0
KOD1 140748Z 00005KT M03/M05 A3016 RMK A01 T10281053  RH  083%=      5-min Rain = 0
KOD1 140749Z 00005KT M03/M05 A3016 RMK A01 T10271051  RH  084%=      5-min Rain = 0
KOD1 140750Z 00005KT M03/M05 A3016 RMK A01 T10261050  RH  084%=      5-min Rain = 0
KOD1 140751Z 00005KT M03/M05 A3016 RMK A01 T10251050  RH  083%=      5-min Rain = 0
KOD1 140752Z 00005KT M03/M05 A3017 RMK A01 T10251051  RH  083%=      5-min Rain = 0
KOD1 140753Z 00006KT M03/M05 A3017 RMK A01 T10251051  RH  082%=      5-min Rain = 0
KOD1 140754Z 00006KT M03/M05 A3017 RMK A01 T10251051  RH  082%=      5-min Rain = 0
KOD1 140755Z 00006KT M03/M05 A3017 RMK A01 T10251051  RH  082%=      5-min Rain = 0
KOD1 140756Z 00006KT M03/M05 A3017 RMK A01 T10251051  RH  082%=      5-min Rain = 0
KOD1 140757Z 00006KT M03/M05 A3017 RMK A01 T10251051  RH  082%=      5-min Rain = 0
KOD1 140758Z 00006KT M03/M05 A3017 RMK A01 T10251052  RH  082%=      5-min Rain = 0
KOD1 140759Z 36006KT M02/M05 A3017 RMK A01 T10241051  RH  081%=      5-min Rain = 0
KOD1 140800Z 35006KT M02/M05 A3017 RMK A01 T10241052  RH  081%=      5-min Rain = 0
KOD1 140801Z 35007KT M02/M05 A3017 RMK A01 T10241053  RH  081%=      5-min Rain = 0
KOD1 140802Z 35007KT M03/M05 A3017 RMK A01 T10251054  RH  080%=      5-min Rain = 0
KOD1 140803Z 35007KT M03/M06 A3017 RMK A01 T10261055  RH  080%=      5-min Rain = 0
KOD1 140804Z 35007KT M03/M06 A3017 RMK A01 T10261055  RH  081%=      5-min Rain = 0
KOD1 140805Z 35007KT M03/M06 A3017 RMK A01 T10271055  RH  081%=      5-min Rain = 0
KOD1 140806Z 35007KT M03/M06 A3017 RMK A01 T10281055  RH  081%=      5-min Rain = 0
KOD1 140807Z 34007KT M03/M06 A3017 RMK A01 T10281055  RH  082%=      5-min Rain = 0
KOD1 140808Z 34007KT M03/M06 A3017 RMK A01 T10291055  RH  082%=      5-min Rain = 0
KOD1 140809Z 35007KT M03/M06 A3018 RMK A01 T10291055  RH  082%=      5-min Rain = 0
KOD1 140810Z 35007KT M03/M06 A3018 RMK A01 T10291055  RH  082%=      5-min Rain = 0
KOD1 140811Z 35007KT M03/M06 A3018 RMK A01 T10301056  RH  082%=      5-min Rain = 0
KOD1 140812Z 35008KT M03/M06 A3018 RMK A01 T10301056  RH  083%=      5-min Rain = 0
KOD1 140813Z 35008KT M03/M06 A3018 RMK A01 T10311055  RH  083%=      5-min Rain = 0
KOD1 140814Z 35007KT M03/M06 A3018 RMK A01 T10301055  RH  083%=      5-min Rain = 0
KOD1 140815Z 35007KT M03/M06 A3018 RMK A01 T10301055  RH  083%=      5-min Rain = 0
KOD1 140816Z 35007KT M03/M06 A3018 RMK A01 T10301055  RH  083%=      5-min Rain = 0
KOD1 140817Z 35007KT M03/M06 A3018 RMK A01 T10311055  RH  083%=      5-min Rain = 0
KOD1 140818Z 35007KT M03/M06 A3018 RMK A01 T10311056  RH  083%=      5-min Rain = 0
KOD1 140819Z 35007KT M03/M06 A3018 RMK A01 T10311056  RH  083%=      5-min Rain = 0
KOD1 140820Z 35007KT M03/M06 A3017 RMK A01 T10321056  RH  083%=      5-min Rain = 0
KOD1 140821Z 35007KT M03/M06 A3017 RMK A01 T10321056  RH  084%=      5-min Rain = 0
KOD1 140822Z 35007KT M03/M06 A3017 RMK A01 T10321056  RH  084%=      5-min Rain = 0
KOD1 140823Z 35007KT M03/M06 A3018 RMK A01 T10321056  RH  084%=      5-min Rain = 0
KOD1 140824Z 35007KT M03/M06 A3018 RMK A01 T10321056  RH  084%=      5-min Rain = 0
KOD1 140825Z 35007KT M03/M06 A3018 RMK A01 T10331056  RH  084%=      5-min Rain = 0
KOD1 140826Z 35007KT M03/M06 A3018 RMK A01 T10331056  RH  084%=      5-min Rain = 0
KOD1 140827Z 35007KT M03/M06 A3018 RMK A01 T10321056  RH  084%=      5-min Rain = 0
KOD1 140828Z 35007KT M03/M06 A3018 RMK A01 T10331056  RH  084%=      5-min Rain = 0
KOD1 140829Z 35007KT M03/M06 A3018 RMK A01 T10331056  RH  084%=      5-min Rain = 0
KOD1 140830Z 35007KT M03/M06 A3018 RMK A01 T10321056  RH  084%=      5-min Rain = 0
KOD1 140831Z 35007KT M03/M06 A3018 RMK A01 T10331056  RH  084%=      5-min Rain = 0
KOD1 140832Z 35006KT M03/M06 A3018 RMK A01 T10331056  RH  084%=      5-min Rain = 0
KOD1 140833Z 35006KT M03/M06 A3018 RMK A01 T10331057  RH  084%=      5-min Rain = 0
KOD1 140834Z 36006KT M03/M06 A3018 RMK A01 T10331056  RH  084%=      5-min Rain = 0
KOD1 140835Z 00006KT M03/M06 A3018 RMK A01 T10331057  RH  084%=      5-min Rain = 0
KOD1 140836Z 00005KT M03/M06 A3018 RMK A01 T10331057  RH  084%=      5-min Rain = 0
KOD1 140837Z 00005KT M03/M06 A3018 RMK A01 T10341058  RH  084%=      5-min Rain = 0
KOD1 140838Z 00005KT M04/M06 A3018 RMK A01 T10351060  RH  083%=      5-min Rain = 0
KOD1 140839Z 00005KT M04/M06 A3018 RMK A01 T10371061  RH  083%=      5-min Rain = 0
KOD1 140840Z 00005KT M04/M06 A3018 RMK A01 T10381061  RH  084%=      5-min Rain = 0
KOD1 140841Z 00005KT M04/M06 A3018 RMK A01 T10381061  RH  084%=      5-min Rain = 0
KOD1 140842Z 00005KT M04/M06 A3019 RMK A01 T10391061  RH  084%=      5-min Rain = 0
KOD1 140843Z 36005KT M04/M06 A3019 RMK A01 T10391061  RH  085%=      5-min Rain = 0
KOD1 140844Z 35005KT M04/M06 A3019 RMK A01 T10391060  RH  085%=      5-min Rain = 0
KOD1 140845Z 35005KT M04/M06 A3019 RMK A01 T10381059  RH  086%=      5-min Rain = 0
KOD1 140846Z 35005KT M04/M06 A3019 RMK A01 T10381058  RH  086%=      5-min Rain = 0
KOD1 140847Z 35005KT M04/M06 A3019 RMK A01 T10371057  RH  086%=      5-min Rain = 0
KOD1 140848Z 35005KT M04/M06 A3019 RMK A01 T10371057  RH  086%=      5-min Rain = 0
KOD1 140849Z 35005KT M04/M06 A3019 RMK A01 T10361056  RH  086%=      5-min Rain = 0
KOD1 140850Z 35005KT M04/M06 A3019 RMK A01 T10351056  RH  086%=      5-min Rain = 0
KOD1 140851Z 35005KT M03/M06 A3019 RMK A01 T10341055  RH  085%=      5-min Rain = 0
KOD1 140852Z 35006KT M03/M06 A3019 RMK A01 T10341056  RH  085%=      5-min Rain = 0
KOD1 140853Z 35006KT M03/M06 A3019 RMK A01 T10331056  RH  084%=      5-min Rain = 0
KOD1 140854Z 35006KT M03/M06 A3019 RMK A01 T10331056  RH  084%=      5-min Rain = 0
KOD1 140855Z 35006KT M03/M06 A3019 RMK A01 T10331056  RH  084%=      5-min Rain = 0
KOD1 140856Z 35006KT M03/M06 A3019 RMK A01 T10331057  RH  084%=      5-min Rain = 0
KOD1 140857Z 35006KT M03/M06 A3019 RMK A01 T10331057  RH  084%=      5-min Rain = 0
KOD1 140858Z 35006KT M03/M06 A3019 RMK A01 T10341058  RH  083%=      5-min Rain = 0
KOD1 140859Z 35006KT M03/M06 A3019 RMK A01 T10341058  RH  083%=      5-min Rain = 0
KOD1 140900Z 35006KT M03/M06 A3019 RMK A01 T10341059  RH  083%=      5-min Rain = 0
KOD1 140901Z 35006KT M03/M06 A3019 RMK A01 T10341058  RH  083%=      5-min Rain = 0
KOD1 140902Z 35006KT M03/M06 A302 RMK A01 T10341058  RH  083%=      5-min Rain = 0
KOD1 140903Z 35006KT M03/M06 A302 RMK A01 T10341059  RH  083%=      5-min Rain = 0
KOD1 140904Z 35006KT M03/M06 A302 RMK A01 T10341059  RH  083%=      5-min Rain = 0
KOD1 140905Z 35006KT M03/M06 A302 RMK A01 T10341059  RH  083%=      5-min Rain = 0
KOD1 140906Z 35006KT M03/M06 A302 RMK A01 T10341059  RH  083%=      5-min Rain = 0
KOD1 140907Z 35006KT M03/M06 A302 RMK A01 T10341059  RH  083%=      5-min Rain = 0
KOD1 140908Z 36006KT M03/M06 A302 RMK A01 T10341059  RH  083%=      5-min Rain = 0
KOD1 140909Z 35006KT M03/M06 A302 RMK A01 T10341059  RH  083%=      5-min Rain = 0
KOD1 140910Z 35006KT M03/M06 A302 RMK A01 T10341059  RH  083%=      5-min Rain = 0
KOD1 140911Z 35006KT M03/M06 A302 RMK A01 T10341059  RH  082%=      5-min Rain = 0
KOD1 140912Z 35006KT M03/M06 A302 RMK A01 T10341060  RH  082%=      5-min Rain = 0
KOD1 140913Z 36006KT M03/M06 A302 RMK A01 T10341060  RH  082%=      5-min Rain = 0
KOD1 140914Z 00006KT M03/M06 A302 RMK A01 T10341060  RH  082%=      5-min Rain = 0
KOD1 140915Z 35006KT M03/M06 A302 RMK A01 T10341060  RH  082%=      5-min Rain = 0
KOD1 140916Z 35007KT M03/M06 A302 RMK A01 T10341060  RH  082%=      5-min Rain = 0
KOD1 140917Z 35007KT M03/M06 A302 RMK A01 T10341060  RH  082%=      5-min Rain = 0
KOD1 140918Z 35007KT M03/M06 A302 RMK A01 T10341060  RH  082%=      5-min Rain = 0
KOD1 140919Z 35007KT M03/M06 A302 RMK A01 T10331059  RH  082%=      5-min Rain = 0
KOD1 140920Z 35006KT M03/M06 A302 RMK A01 T10331059  RH  082%=      5-min Rain = 0
KOD1 140921Z 34006KT M03/M06 A302 RMK A01 T10331059  RH  082%=      5-min Rain = 0
KOD1 140922Z 34006KT M03/M06 A302 RMK A01 T10331059  RH  082%=      5-min Rain = 0
KOD1 140923Z 34005KT M03/M06 A302 RMK A01 T10331060  RH  082%=      5-min Rain = 0
KOD1 140924Z 34005KT M03/M06 A302 RMK A01 T10331060  RH  082%=      5-min Rain = 0
KOD1 140925Z 34005KT M03/M06 A302 RMK A01 T10331060  RH  082%=      5-min Rain = 0
KOD1 140926Z 34006KT M03/M06 A302 RMK A01 T10331060  RH  082%=      5-min Rain = 0
KOD1 140927Z 35005KT M03/M06 A302 RMK A01 T10331059  RH  082%=      5-min Rain = 0
KOD1 140928Z 35005KT M03/M06 A302 RMK A01 T10341060  RH  082%=      5-min Rain = 0
KOD1 140929Z 35006KT M03/M06 A302 RMK A01 T10341060  RH  082%=      5-min Rain = 0
KOD1 140930Z 35006KT M03/M06 A302 RMK A01 T10341061  RH  082%=      5-min Rain = 0
KOD1 140931Z 35006KT M04/M06 A302 RMK A01 T10351061  RH  082%=      5-min Rain = 0
KOD1 140932Z 35006KT M04/M06 A302 RMK A01 T10351061  RH  082%=      5-min Rain = 0
KOD1 140933Z 35006KT M04/M06 A302 RMK A01 T10351061  RH  082%=      5-min Rain = 0
KOD1 140934Z 35006KT M04/M06 A302 RMK A01 T10351061  RH  083%=      5-min Rain = 0
KOD1 140935Z 35006KT M04/M06 A302 RMK A01 T10351061  RH  083%=      5-min Rain = 0
KOD1 140936Z 00006KT M04/M06 A302 RMK A01 T10351061  RH  083%=      5-min Rain = 0
KOD1 140937Z 00005KT M04/M06 A302 RMK A01 T10371062  RH  082%=      5-min Rain = 0
KOD1 140938Z 00005KT M04/M06 A302 RMK A01 T10381064  RH  082%=      5-min Rain = 0
KOD1 140939Z 00005KT M04/M06 A3021 RMK A01 T10391064  RH  083%=      5-min Rain = 0
KOD1 140940Z 00005KT M04/M06 A302 RMK A01 T10401064  RH  083%=      5-min Rain = 0
KOD1 140941Z 00005KT M04/M06 A302 RMK A01 T10401064  RH  083%=      5-min Rain = 0
KOD1 140942Z 00006KT M04/M06 A302 RMK A01 T10401064  RH  084%=      5-min Rain = 0
KOD1 140943Z 00005KT M04/M06 A302 RMK A01 T10401063  RH  084%=      5-min Rain = 0
KOD1 140944Z 01006KT M04/M06 A302 RMK A01 T10401063  RH  084%=      5-min Rain = 0
KOD1 140945Z 01005KT M04/M06 A302 RMK A01 T10401063  RH  084%=      5-min Rain = 0
KOD1 140946Z 01005KT M04/M06 A3021 RMK A01 T10391062  RH  084%=      5-min Rain = 0
KOD1 140947Z 01005KT M04/M06 A3021 RMK A01 T10391062  RH  084%=      5-min Rain = 0
KOD1 140948Z 01005KT M04/M06 A3021 RMK A01 T10401063  RH  084%=      5-min Rain = 0
KOD1 140949Z 01005KT M04/M06 A3021 RMK A01 T10401064  RH  084%=      5-min Rain = 0
KOD1 140950Z 01005KT M04/M06 A3021 RMK A01 T10411064  RH  084%=      5-min Rain = 0
KOD1 140951Z 01005KT M04/M06 A3021 RMK A01 T10411064  RH  084%=      5-min Rain = 0
KOD1 140952Z 01005KT M04/M07 A3021 RMK A01 T10421065  RH  084%=      5-min Rain = 0
KOD1 140953Z 01005KT M04/M06 A3021 RMK A01 T10421064  RH  084%=      5-min Rain = 0
KOD1 140954Z 01005KT M04/M06 A3021 RMK A01 T10421064  RH  085%=      5-min Rain = 0
KOD1 140955Z 01005KT M04/M06 A3021 RMK A01 T10421063  RH  085%=      5-min Rain = 0
KOD1 140956Z 01006KT M04/M06 A3021 RMK A01 T10411063  RH  085%=      5-min Rain = 0
KOD1 140957Z 01006KT M04/M06 A3021 RMK A01 T10411063  RH  085%=      5-min Rain = 0
KOD1 140958Z 01006KT M04/M06 A3021 RMK A01 T10411063  RH  085%=      5-min Rain = 0
KOD1 140959Z 01006KT M04/M06 A3021 RMK A01 T10401062  RH  085%=      5-min Rain = 0
KOD1 141000Z 01006KT M04/M06 A3021 RMK A01 T10401061  RH  085%=      5-min Rain = 0
KOD1 141001Z 01006KT M04/M06 A3021 RMK A01 T10391060  RH  085%=      5-min Rain = 0
KOD1 141002Z 01006KT M04/M06 A3021 RMK A01 T10381060  RH  085%=      5-min Rain = 0
KOD1 141003Z 01005KT M04/M06 A3021 RMK A01 T10381060  RH  085%=      5-min Rain = 0
KOD1 141004Z 00005KT M04/M06 A3021 RMK A01 T10381060  RH  085%=      5-min Rain = 0
KOD1 141005Z 00004KT M04/M06 A3021 RMK A01 T10381060  RH  084%=      5-min Rain = 0
KOD1 141006Z 00004KT M04/M06 A3021 RMK A01 T10381061  RH  084%=      5-min Rain = 0
KOD1 141007Z 36004KT M04/M06 A3021 RMK A01 T10381062  RH  084%=      5-min Rain = 0
KOD1 141008Z 35004KT M04/M06 A3022 RMK A01 T10381062  RH  084%=      5-min Rain = 0
KOD1 141009Z 35004KT M04/M06 A3022 RMK A01 T10381062  RH  084%=      5-min Rain = 0
KOD1 141010Z 35004KT M04/M06 A3022 RMK A01 T10381062  RH  084%=      5-min Rain = 0
KOD1 141011Z 35004KT M04/M06 A3022 RMK A01 T10381062  RH  084%=      5-min Rain = 0
KOD1 141012Z 35004KT M04/M06 A3022 RMK A01 T10381061  RH  084%=      5-min Rain = 0
KOD1 141013Z 34005KT M04/M06 A3022 RMK A01 T10381061  RH  084%=      5-min Rain = 0
KOD1 141014Z 35004KT M04/M06 A3022 RMK A01 T10371061  RH  084%=      5-min Rain = 0
KOD1 141015Z 35005KT M04/M06 A3022 RMK A01 T10371060  RH  084%=      5-min Rain = 0
KOD1 141016Z 35005KT M04/M06 A3022 RMK A01 T10371060  RH  084%=      5-min Rain = 0
KOD1 141017Z 35005KT M04/M06 A3022 RMK A01 T10371060  RH  084%=      5-min Rain = 0
KOD1 141018Z 35005KT M04/M06 A3022 RMK A01 T10381061  RH  084%=      5-min Rain = 0
KOD1 141019Z 35005KT M04/M06 A3022 RMK A01 T10381061  RH  084%=      5-min Rain = 0
KOD1 141020Z 35005KT M04/M06 A3022 RMK A01 T10381061  RH  084%=      5-min Rain = 0
KOD1 141021Z 35005KT M04/M06 A3022 RMK A01 T10381062  RH  084%=      5-min Rain = 0
KOD1 141022Z 35005KT M04/M06 A3022 RMK A01 T10381062  RH  084%=      5-min Rain = 0
KOD1 141023Z 35005KT M04/M06 A3022 RMK A01 T10381062  RH  084%=      5-min Rain = 0
KOD1 141024Z 35005KT M04/M06 A3022 RMK A01 T10381061  RH  084%=      5-min Rain = 0
KOD1 141025Z 34005KT M04/M06 A3022 RMK A01 T10381061  RH  084%=      5-min Rain = 0
KOD1 141026Z 34005KT M04/M06 A3022 RMK A01 T10381061  RH  084%=      5-min Rain = 0
KOD1 141027Z 35005KT M04/M06 A3022 RMK A01 T10381060  RH  084%=      5-min Rain = 0
KOD1 141028Z 35005KT M04/M06 A3022 RMK A01 T10371060  RH  084%=      5-min Rain = 0
KOD1 141029Z 34004KT M04/M06 A3023 RMK A01 T10371060  RH  084%=      5-min Rain = 0
KOD1 141030Z 34004KT M04/M06 A3023 RMK A01 T10371060  RH  084%=      5-min Rain = 0
KOD1 141031Z 34003KT M04/M06 A3023 RMK A01 T10371061  RH  084%=      5-min Rain = 0
KOD1 141032Z 34003KT M04/M06 A3023 RMK A01 T10381061  RH  084%=      5-min Rain = 0
KOD1 141033Z 34003KT M04/M06 A3023 RMK A01 T10381062  RH  084%=      5-min Rain = 0
KOD1 141034Z 34003KT M04/M06 A3023 RMK A01 T10381062  RH  084%=      5-min Rain = 0
KOD1 141035Z 34002KT M04/M06 A3023 RMK A01 T10391062  RH  084%=      5-min Rain = 0
KOD1 141036Z 34002KT M04/M06 A3023 RMK A01 T10391062  RH  084%=      5-min Rain = 0
KOD1 141037Z 34003KT M04/M06 A3023 RMK A01 T10391062  RH  084%=      5-min Rain = 0
KOD1 141038Z 34003KT M04/M06 A3023 RMK A01 T10391062  RH  084%=      5-min Rain = 0
KOD1 141039Z 34003KT M04/M06 A3023 RMK A01 T10401062  RH  085%=      5-min Rain = 0
KOD1 141040Z 33003KT M04/M06 A3023 RMK A01 T10401062  RH  085%=      5-min Rain = 0
KOD1 141041Z 33003KT M04/M06 A3023 RMK A01 T10401062  RH  085%=      5-min Rain = 0
KOD1 141042Z 33003KT M04/M06 A3023 RMK A01 T10401063  RH  085%=      5-min Rain = 0
KOD1 141043Z 33003KT M04/M06 A3023 RMK A01 T10411063  RH  084%=      5-min Rain = 0
KOD1 141044Z 33004KT M04/M06 A3023 RMK A01 T10411064  RH  084%=      5-min Rain = 0
KOD1 141045Z 33004KT M04/M06 A3023 RMK A01 T10421064  RH  084%=      5-min Rain = 0
KOD1 141046Z 33004KT M04/M06 A3023 RMK A01 T10421064  RH  084%=      5-min Rain = 0
KOD1 141047Z 33004KT M04/M06 A3023 RMK A01 T10421064  RH  084%=      5-min Rain = 0
KOD1 141048Z 33004KT M04/M07 A3023 RMK A01 T10421065  RH  085%=      5-min Rain = 0
KOD1 141049Z 33004KT M04/M07 A3023 RMK A01 T10421065  RH  085%=      5-min Rain = 0
KOD1 141050Z 33004KT M04/M07 A3024 RMK A01 T10421065  RH  085%=      5-min Rain = 0
KOD1 141051Z 32003KT M04/M07 A3024 RMK A01 T10421065  RH  085%=      5-min Rain = 0
KOD1 141052Z 32003KT M04/M07 A3024 RMK A01 T10421065  RH  085%=      5-min Rain = 0
KOD1 141053Z 32003KT M04/M07 A3024 RMK A01 T10431065  RH  085%=      5-min Rain = 0
KOD1 141054Z 33003KT M04/M07 A3024 RMK A01 T10441066  RH  085%=      5-min Rain = 0
KOD1 141055Z 32003KT M04/M07 A3024 RMK A01 T10441066  RH  085%=      5-min Rain = 0
KOD1 141056Z 32002KT M05/M07 A3024 RMK A01 T10451066  RH  085%=      5-min Rain = 0
KOD1 141057Z 32002KT M05/M07 A3024 RMK A01 T10451066  RH  085%=      5-min Rain = 0
KOD1 141058Z 32002KT M05/M07 A3024 RMK A01 T10451066  RH  085%=      5-min Rain = 0
KOD1 141059Z 32003KT M05/M07 A3024 RMK A01 T10461067  RH  085%=      5-min Rain = 0
KOD1 141100Z 31003KT M05/M07 A3024 RMK A01 T10451065  RH  086%=      5-min Rain = 0
KOD1 141101Z 31002KT M04/M06 A3024 RMK A01 T10441064  RH  086%=      5-min Rain = 0
KOD1 141102Z 32002KT M04/M06 A3024 RMK A01 T10441064  RH  086%=      5-min Rain = 0
KOD1 141103Z 31002KT M04/M07 A3024 RMK A01 T10441065  RH  085%=      5-min Rain = 0
KOD1 141104Z 31002KT M04/M06 A3024 RMK A01 T10441064  RH  085%=      5-min Rain = 0
KOD1 141105Z 33003KT M04/M06 A3024 RMK A01 T10441064  RH  085%=      5-min Rain = 0
KOD1 141106Z 31003KT M04/M07 A3024 RMK A01 T10441065  RH  085%=      5-min Rain = 0
KOD1 141107Z 31003KT M04/M06 A3024 RMK A01 T10431064  RH  086%=      5-min Rain = 0
KOD1 141108Z 33003KT M04/M06 A3025 RMK A01 T10431063  RH  086%=      5-min Rain = 0
KOD1 141109Z 32004KT M04/M06 A3024 RMK A01 T10431063  RH  086%=      5-min Rain = 0
KOD1 141110Z 31004KT M04/M06 A3024 RMK A01 T10431063  RH  086%=      5-min Rain = 0
KOD1 141111Z 33004KT M04/M06 A3024 RMK A01 T10421062  RH  086%=      5-min Rain = 0
KOD1 141112Z 33003KT M04/M06 A3025 RMK A01 T10431063  RH  086%=      5-min Rain = 0
KOD1 141113Z 32004KT M04/M06 A3024 RMK A01 T10431064  RH  086%=      5-min Rain = 0
KOD1 141114Z 32003KT M04/M06 A3024 RMK A01 T10441064  RH  086%=      5-min Rain = 0
KOD1 141115Z 33003KT M04/M07 A3025 RMK A01 T10441065  RH  086%=      5-min Rain = 0
KOD1 141116Z 33004KT M05/M07 A3025 RMK A01 T10451065  RH  086%=      5-min Rain = 0
KOD1 141117Z 32004KT M05/M07 A3024 RMK A01 T10451065  RH  086%=      5-min Rain = 0
KOD1 141118Z 33004KT M05/M07 A3025 RMK A01 T10461066  RH  086%=      5-min Rain = 0
KOD1 141119Z 33005KT M05/M07 A3025 RMK A01 T10461066  RH  086%=      5-min Rain = 0
KOD1 141120Z 33005KT M05/M07 A3024 RMK A01 T10471066  RH  086%=      5-min Rain = 0
KOD1 141121Z 33006KT M05/M07 A3025 RMK A01 T10481068  RH  086%=      5-min Rain = 0
KOD1 141122Z 33006KT M05/M07 A3025 RMK A01 T10491068  RH  087%=      5-min Rain = 0
KOD1 141123Z 33006KT M05/M07 A3024 RMK A01 T10481066  RH  087%=      5-min Rain = 0
KOD1 141124Z 33007KT M05/M06 A3025 RMK A01 T10471064  RH  088%=      5-min Rain = 0
KOD1 141125Z 33007KT M05/M06 A3025 RMK A01 T10451062  RH  088%=      5-min Rain = 0
KOD1 141126Z 33007KT M04/M06 A3025 RMK A01 T10441061  RH  088%=      5-min Rain = 0
KOD1 141127Z 33007KT M04/M06 A3025 RMK A01 T10421060  RH  088%=      5-min Rain = 0
KOD1 141128Z 33007KT M04/M06 A3025 RMK A01 T10411059  RH  087%=      5-min Rain = 0
KOD1 141129Z 33007KT M04/M06 A3025 RMK A01 T10401058  RH  087%=      5-min Rain = 0
KOD1 141130Z 33007KT M04/M06 A3025 RMK A01 T10391058  RH  086%=      5-min Rain = 0
KOD1 141131Z 33007KT M04/M06 A3025 RMK A01 T10371058  RH  086%=      5-min Rain = 0
KOD1 141132Z 33007KT M04/M06 A3025 RMK A01 T10371058  RH  085%=      5-min Rain = 0
KOD1 141133Z 33006KT M04/M06 A3025 RMK A01 T10361058  RH  085%=      5-min Rain = 0
KOD1 141134Z 33006KT M04/M06 A3025 RMK A01 T10361059  RH  084%=      5-min Rain = 0
KOD1 141135Z 33006KT M04/M06 A3025 RMK A01 T10361059  RH  084%=      5-min Rain = 0
KOD1 141136Z 33006KT M04/M06 A3025 RMK A01 T10361060  RH  084%=      5-min Rain = 0
KOD1 141137Z 33007KT M04/M06 A3025 RMK A01 T10371060  RH  084%=      5-min Rain = 0
KOD1 141138Z 33006KT M04/M06 A3025 RMK A01 T10371060  RH  084%=      5-min Rain = 0
KOD1 141139Z 34006KT M04/M06 A3025 RMK A01 T10371060  RH  084%=      5-min Rain = 0
KOD1 141140Z 34006KT M04/M06 A3025 RMK A01 T10371060  RH  084%=      5-min Rain = 0
KOD1 141141Z 34006KT M04/M06 A3025 RMK A01 T10371060  RH  084%=      5-min Rain = 0
KOD1 141142Z 34006KT M04/M06 A3025 RMK A01 T10371060  RH  084%=      5-min Rain = 0
KOD1 141143Z 34006KT M04/M06 A3025 RMK A01 T10371061  RH  084%=      5-min Rain = 0
KOD1 141144Z 34005KT M04/M06 A3025 RMK A01 T10371061  RH  084%=      5-min Rain = 0
KOD1 141145Z 34006KT M04/M06 A3025 RMK A01 T10371061  RH  084%=      5-min Rain = 0
KOD1 141146Z 34005KT M04/M06 A3025 RMK A01 T10371061  RH  084%=      5-min Rain = 0
KOD1 141147Z 34005KT M04/M06 A3025 RMK A01 T10371061  RH  084%=      5-min Rain = 0
KOD1 141148Z 34005KT M04/M06 A3025 RMK A01 T10371061  RH  084%=      5-min Rain = 0
KOD1 141149Z 34005KT M04/M06 A3025 RMK A01 T10371060  RH  084%=      5-min Rain = 0
KOD1 141150Z 34005KT M04/M06 A3025 RMK A01 T10371060  RH  084%=      5-min Rain = 0
KOD1 141151Z 34005KT M04/M06 A3025 RMK A01 T10371060  RH  084%=      5-min Rain = 0
KOD1 141152Z 34005KT M04/M06 A3025 RMK A01 T10361059  RH  084%=      5-min Rain = 0
KOD1 141153Z 35005KT M04/M06 A3025 RMK A01 T10351058  RH  084%=      5-min Rain = 0
KOD1 141154Z 35005KT M03/M06 A3025 RMK A01 T10341058  RH  084%=      5-min Rain = 0
KOD1 141155Z 35005KT M03/M06 A3026 RMK A01 T10331057  RH  083%=      5-min Rain = 0
KOD1 141156Z 35004KT M03/M06 A3026 RMK A01 T10331058  RH  083%=      5-min Rain = 0
KOD1 141157Z 35005KT M03/M06 A3026 RMK A01 T10321058  RH  082%=      5-min Rain = 0
KOD1 141158Z 34005KT M03/M06 A3026 RMK A01 T10321058  RH  082%=      5-min Rain = 0
KOD1 141159Z 34004KT M03/M06 A3026 RMK A01 T10321058  RH  082%=      5-min Rain = 0
KOD1 141200Z 34004KT M03/M06 A3026 RMK A01 T10321058  RH  082%=      5-min Rain = 0
KOD1 141201Z 34005KT M03/M06 A3026 RMK A01 T10311058  RH  082%=      5-min Rain = 0
KOD1 141202Z 33004KT M03/M06 A3026 RMK A01 T10311058  RH  082%=      5-min Rain = 0
KOD1 141203Z 33003KT M03/M06 A3026 RMK A01 T10311058  RH  082%=      5-min Rain = 0
KOD1 141204Z 32003KT M03/M06 A3026 RMK A01 T10311058  RH  082%=      5-min Rain = 0
KOD1 141205Z 34005KT M03/M06 A3026 RMK A01 T10311058  RH  082%=      5-min Rain = 0
KOD1 141206Z 33004KT M03/M06 A3026 RMK A01 T10301057  RH  082%=      5-min Rain = 0
KOD1 141207Z 32004KT M03/M06 A3026 RMK A01 T10301057  RH  081%=      5-min Rain = 0
KOD1 141208Z 33004KT M03/M06 A3026 RMK A01 T10301058  RH  081%=      5-min Rain = 0
KOD1 141209Z 33004KT M03/M06 A3026 RMK A01 T10311059  RH  081%=      5-min Rain = 0
KOD1 141210Z 33005KT M03/M06 A3026 RMK A01 T10311059  RH  081%=      5-min Rain = 0
KOD1 141211Z 33005KT M03/M06 A3026 RMK A01 T10311058  RH  081%=      5-min Rain = 0
KOD1 141212Z 33005KT M03/M06 A3026 RMK A01 T10311059  RH  081%=      5-min Rain = 0
KOD1 141213Z 33006KT M03/M06 A3026 RMK A01 T10311059  RH  081%=      5-min Rain = 0
KOD1 141214Z 33005KT M03/M06 A3026 RMK A01 T10311058  RH  081%=      5-min Rain = 0
KOD1 141215Z 34005KT M03/M06 A3027 RMK A01 T10311058  RH  082%=      5-min Rain = 0
KOD1 141216Z 34005KT M03/M06 A3027 RMK A01 T10321059  RH  082%=      5-min Rain = 0
KOD1 141217Z 34004KT M03/M06 A3027 RMK A01 T10321058  RH  082%=      5-min Rain = 0
KOD1 141218Z 34004KT M03/M06 A3027 RMK A01 T10321058  RH  082%=      5-min Rain = 0
KOD1 141219Z 34004KT M03/M06 A3027 RMK A01 T10311057  RH  082%=      5-min Rain = 0
KOD1 141220Z 34004KT M03/M06 A3027 RMK A01 T10311057  RH  082%=      5-min Rain = 0
KOD1 141221Z 34004KT M03/M06 A3027 RMK A01 T10311057  RH  082%=      5-min Rain = 0
KOD1 141222Z 34004KT M03/M06 A3027 RMK A01 T10311057  RH  082%=      5-min Rain = 0
KOD1 141223Z 34004KT M03/M06 A3027 RMK A01 T10301056  RH  082%=      5-min Rain = 0
KOD1 141224Z 34004KT M03/M06 A3027 RMK A01 T10291055  RH  082%=      5-min Rain = 0
KOD1 141225Z 34004KT M03/M05 A3027 RMK A01 T10281054  RH  082%=      5-min Rain = 0
KOD1 141226Z 34003KT M03/M05 A3027 RMK A01 T10271054  RH  082%=      5-min Rain = 0
KOD1 141227Z 34002KT M03/M06 A3027 RMK A01 T10271055  RH  081%=      5-min Rain = 0
KOD1 141228Z 33001KT M03/M06 A3027 RMK A01 T10271055  RH  081%=      5-min Rain = 0
KOD1 141229Z 34000KT M03/M06 A3027 RMK A01 T10281056  RH  081%=      5-min Rain = 0
KOD1 141230Z 33001KT M03/M06 A3027 RMK A01 T10281057  RH  081%=      5-min Rain = 0
KOD1 141231Z 32001KT M03/M06 A3027 RMK A01 T10291057  RH  081%=      5-min Rain = 0
KOD1 141232Z 32001KT M03/M06 A3028 RMK A01 T10301058  RH  081%=      5-min Rain = 0
KOD1 141233Z 32002KT M03/M06 A3028 RMK A01 T10301057  RH  082%=      5-min Rain = 0
KOD1 141234Z 34001KT M03/M06 A3028 RMK A01 T10311057  RH  082%=      5-min Rain = 0
KOD1 141235Z 34001KT M03/M06 A3028 RMK A01 T10311058  RH  082%=      5-min Rain = 0
KOD1 141236Z 34000KT M03/M06 A3028 RMK A01 T10311058  RH  082%=      5-min Rain = 0
KOD1 141237Z 35000KT M03/M06 A3028 RMK A01 T10321058  RH  082%=      5-min Rain = 0
KOD1 141238Z 35000KT M03/M06 A3028 RMK A01 T10331058  RH  082%=      5-min Rain = 0
KOD1 141239Z 34001KT M03/M06 A3028 RMK A01 T10331059  RH  083%=      5-min Rain = 0
KOD1 141240Z 34002KT M03/M06 A3028 RMK A01 T10341059  RH  083%=      5-min Rain = 0
KOD1 141241Z 34002KT M03/M06 A3028 RMK A01 T10341059  RH  083%=      5-min Rain = 0
KOD1 141242Z 34003KT M03/M06 A3028 RMK A01 T10341059  RH  083%=      5-min Rain = 0
KOD1 141243Z 34003KT M04/M06 A3028 RMK A01 T10351059  RH  083%=      5-min Rain = 0
KOD1 141244Z 34003KT M04/M06 A3028 RMK A01 T10351059  RH  083%=      5-min Rain = 0
KOD1 141245Z 34004KT M04/M06 A3028 RMK A01 T10351059  RH  084%=      5-min Rain = 0
KOD1 141246Z 34004KT M04/M06 A3028 RMK A01 T10351058  RH  084%=      5-min Rain = 0
KOD1 141247Z 34004KT M03/M06 A3028 RMK A01 T10341057  RH  084%=      5-min Rain = 0
KOD1 141248Z 35004KT M03/M06 A3028 RMK A01 T10341057  RH  084%=      5-min Rain = 0
KOD1 141249Z 35004KT M03/M06 A3029 RMK A01 T10341058  RH  084%=      5-min Rain = 0
KOD1 141250Z 34004KT M03/M06 A3029 RMK A01 T10341058  RH  083%=      5-min Rain = 0
KOD1 141251Z 35004KT M03/M06 A3029 RMK A01 T10341058  RH  083%=      5-min Rain = 0
KOD1 141252Z 34003KT M03/M06 A3029 RMK A01 T10331058  RH  083%=      5-min Rain = 0
KOD1 141253Z 34003KT M03/M06 A3029 RMK A01 T10331057  RH  083%=      5-min Rain = 0
KOD1 141254Z 34003KT M03/M06 A3029 RMK A01 T10331057  RH  083%=      5-min Rain = 0
KOD1 141255Z 34003KT M03/M06 A3029 RMK A01 T10341058  RH  083%=      5-min Rain = 0
KOD1 141256Z 34004KT M04/M06 A3029 RMK A01 T10351059  RH  083%=      5-min Rain = 0
KOD1 141257Z 34004KT M04/M06 A3029 RMK A01 T10351060  RH  083%=      5-min Rain = 0
KOD1 141258Z 34005KT M04/M06 A3029 RMK A01 T10351059  RH  084%=      5-min Rain = 0
KOD1 141259Z 34005KT M04/M06 A3029 RMK A01 T10351059  RH  084%=      5-min Rain = 0
KOD1 141300Z 34005KT M04/M06 A3029 RMK A01 T10351058  RH  084%=      5-min Rain = 0
KOD1 141301Z 35006KT M03/M06 A3029 RMK A01 T10341058  RH  084%=      5-min Rain = 0
KOD1 141302Z 35006KT M03/M06 A3029 RMK A01 T10341058  RH  084%=      5-min Rain = 0
KOD1 141303Z 35006KT M03/M06 A3029 RMK A01 T10341056  RH  084%=      5-min Rain = 0
KOD1 141304Z 35006KT M03/M06 A3029 RMK A01 T10321055  RH  084%=      5-min Rain = 0
KOD1 141305Z 35007KT M03/M05 A3029 RMK A01 T10311054  RH  084%=      5-min Rain = 0
KOD1 141306Z 35006KT M03/M05 A3029 RMK A01 T10311054  RH  084%=      5-min Rain = 0
KOD1 141307Z 35006KT M03/M05 A3029 RMK A01 T10311054  RH  084%=      5-min Rain = 0
KOD1 141308Z 35006KT M03/M06 A3029 RMK A01 T10311055  RH  084%=      5-min Rain = 0
KOD1 141309Z 36006KT M03/M06 A303 RMK A01 T10311055  RH  083%=      5-min Rain = 0
KOD1 141310Z 36006KT M03/M05 A303 RMK A01 T10301054  RH  083%=      5-min Rain = 0
KOD1 141311Z 00006KT M03/M05 A303 RMK A01 T10301054  RH  083%=      5-min Rain = 0
KOD1 141312Z 00006KT M03/M05 A303 RMK A01 T10301054  RH  083%=      5-min Rain = 0
KOD1 141313Z 36005KT M03/M05 A303 RMK A01 T10291054  RH  083%=      5-min Rain = 0
KOD1 141314Z 36005KT M03/M05 A303 RMK A01 T10291054  RH  083%=      5-min Rain = 0
KOD1 141315Z 00005KT M03/M05 A303 RMK A01 T10291054  RH  083%=      5-min Rain = 0
KOD1 141316Z 00005KT M03/M05 A303 RMK A01 T10291054  RH  083%=      5-min Rain = 0
KOD1 141317Z 00005KT M03/M05 A303 RMK A01 T10291054  RH  083%=      5-min Rain = 0
KOD1 141318Z 01004KT M03/M05 A303 RMK A01 T10291053  RH  083%=      5-min Rain = 0
KOD1 141319Z 00004KT M03/M05 A303 RMK A01 T10281053  RH  083%=      5-min Rain = 0
KOD1 141320Z 01005KT M03/M05 A303 RMK A01 T10271052  RH  083%=      5-min Rain = 0
KOD1 141321Z 00005KT M03/M05 A303 RMK A01 T10271052  RH  083%=      5-min Rain = 0
KOD1 141322Z 00004KT M03/M05 A303 RMK A01 T10261051  RH  083%=      5-min Rain = 0
KOD1 141323Z 36005KT M03/M05 A303 RMK A01 T10251050  RH  083%=      5-min Rain = 0
KOD1 141324Z 36005KT M02/M05 A303 RMK A01 T10241050  RH  083%=      5-min Rain = 0
KOD1 141325Z 36005KT M02/M05 A303 RMK A01 T10241050  RH  082%=      5-min Rain = 0
KOD1 141326Z 00005KT M02/M05 A303 RMK A01 T10231050  RH  082%=      5-min Rain = 0
KOD1 141327Z 36004KT M02/M05 A303 RMK A01 T10231049  RH  082%=      5-min Rain = 0
KOD1 141328Z 35004KT M02/M05 A303 RMK A01 T10221048  RH  082%=      5-min Rain = 0
KOD1 141329Z 36004KT M02/M05 A3031 RMK A01 T10211047  RH  082%=      5-min Rain = 0
KOD1 141330Z 36004KT M02/M05 A3031 RMK A01 T10201046  RH  083%=      5-min Rain = 0
KOD1 141331Z 00004KT M02/M05 A3031 RMK A01 T10201046  RH  083%=      5-min Rain = 0
KOD1 141332Z 00004KT M02/M05 A3031 RMK A01 T10191045  RH  083%=      5-min Rain = 0
KOD1 141333Z 00004KT M02/M04 A3031 RMK A01 T10181044  RH  083%=      5-min Rain = 0
KOD1 141334Z 00004KT M02/M04 A3031 RMK A01 T10171042  RH  083%=      5-min Rain = 0
KOD1 141335Z 01005KT M02/M04 A3031 RMK A01 T10151041  RH  083%=      5-min Rain = 0
KOD1 141336Z 00005KT M01/M04 A3031 RMK A01 T10141040  RH  083%=      5-min Rain = 0
KOD1 141337Z 01005KT M01/M04 A3031 RMK A01 T10121038  RH  083%=      5-min Rain = 0
KOD1 141338Z 01006KT M01/M04 A3031 RMK A01 T10101036  RH  083%=      5-min Rain = 0
KOD1 141339Z 01006KT M01/M04 A3031 RMK A01 T10081035  RH  082%=      5-min Rain = 0
KOD1 141340Z 01005KT M01/M03 A3031 RMK A01 T10061034  RH  082%=      5-min Rain = 0
KOD1 141341Z 00006KT M01/M03 A3031 RMK A01 T10051033  RH  081%=      5-min Rain = 0
KOD1 141342Z 01005KT M00/M03 A3031 RMK A01 T10031032  RH  081%=      5-min Rain = 0
KOD1 141343Z 01006KT M00/M03 A3031 RMK A01 T10021032  RH  080%=      5-min Rain = 0
KOD1 141344Z 00006KT 00/03 A3031 RMK A01 T00-00-32  RH  079%=      5-min Rain = 0
KOD1 141345Z 00006KT 00/M03 A3032 RMK A01 T00011031  RH  079%=      5-min Rain = 0
KOD1 141346Z 00006KT 00/M03 A3032 RMK A01 T00011031  RH  079%=      5-min Rain = 0
KOD1 141347Z 00007KT 00/M03 A3032 RMK A01 T00021031  RH  078%=      5-min Rain = 0
KOD1 141348Z 00007KT 00/M03 A3032 RMK A01 T00031031  RH  078%=      5-min Rain = 0
KOD1 141349Z 00007KT 00/M03 A3032 RMK A01 T00041030  RH  078%=      5-min Rain = 0
KOD1 141350Z 00008KT 01/M03 A3032 RMK A01 T00051030  RH  078%=      5-min Rain = 0
KOD1 141351Z 00007KT 01/M03 A3032 RMK A01 T00051029  RH  078%=      5-min Rain = 0
KOD1 141352Z 00008KT 01/M03 A3032 RMK A01 T00061029  RH  078%=      5-min Rain = 0
KOD1 141353Z 00008KT 01/M03 A3032 RMK A01 T00071028  RH  077%=      5-min Rain = 0
KOD1 141354Z 00008KT 01/M03 A3032 RMK A01 T00081028  RH  077%=      5-min Rain = 0
KOD1 141355Z 00009KT 01/M03 A3032 RMK A01 T00091028  RH  076%=      5-min Rain = 0
KOD1 141356Z 00008KT 01/M03 A3032 RMK A01 T00091027  RH  077%=      5-min Rain = 0
KOD1 141357Z 01008KT 01/M03 A3032 RMK A01 T00101027  RH  076%=      5-min Rain = 0
KOD1 141358Z 00008KT 01/M03 A3032 RMK A01 T00111027  RH  076%=      5-min Rain = 0
KOD1 141359Z 00009KT 01/M03 A3032 RMK A01 T00111027  RH  076%=      5-min Rain = 0
KOD1 141400Z 01008KT 01/M03 A3032 RMK A01 T00121027  RH  075%=      5-min Rain = 0
KOD1 141401Z 36008KT 01/M03 A3032 RMK A01 T00121026  RH  075%=      5-min Rain = 0
KOD1 141402Z 00008KT 01/M03 A3032 RMK A01 T00131026  RH  075%=      5-min Rain = 0
KOD1 141403Z 00009KT 01/M03 A3032 RMK A01 T00131026  RH  075%=      5-min Rain = 0
KOD1 141404Z 00008KT 01/M03 A3033 RMK A01 T00141026  RH  075%=      5-min Rain = 0
KOD1 141405Z 00009KT 01/M03 A3033 RMK A01 T00141025  RH  075%=      5-min Rain = 0
KOD1 141406Z 00008KT 02/M03 A3033 RMK A01 T00151025  RH  075%=      5-min Rain = 0
KOD1 141407Z 00008KT 02/M03 A3033 RMK A01 T00161025  RH  075%=      5-min Rain = 0
KOD1 141408Z 00008KT 02/M02 A3033 RMK A01 T00161024  RH  075%=      5-min Rain = 0
KOD1 141409Z 00008KT 02/M02 A3033 RMK A01 T00171024  RH  075%=      5-min Rain = 0
KOD1 141410Z 01008KT 02/M02 A3033 RMK A01 T00171024  RH  074%=      5-min Rain = 0
KOD1 141411Z 00008KT 02/M02 A3033 RMK A01 T00171024  RH  074%=      5-min Rain = 0
KOD1 141412Z 00008KT 02/M02 A3033 RMK A01 T00191022  RH  074%=      5-min Rain = 0
KOD1 141413Z 00007KT 02/M02 A3033 RMK A01 T00191023  RH  074%=      5-min Rain = 0
KOD1 141414Z 36008KT 02/M02 A3033 RMK A01 T00191022  RH  074%=      5-min Rain = 0
KOD1 141415Z 00009KT 02/M02 A3034 RMK A01 T00201022  RH  074%=      5-min Rain = 0
KOD1 141416Z 36008KT 02/M02 A3034 RMK A01 T00201022  RH  073%=      5-min Rain = 0
KOD1 141417Z 00008KT 02/M02 A3034 RMK A01 T00211021  RH  074%=      5-min Rain = 0
KOD1 141418Z 36008KT 02/M02 A3034 RMK A01 T00221021  RH  073%=      5-min Rain = 0
KOD1 141419Z 00007KT 02/M02 A3034 RMK A01 T00231020  RH  073%=      5-min Rain = 0
KOD1 141420Z 01008KT 02/M02 A3034 RMK A01 T00231020  RH  073%=      5-min Rain = 0
KOD1 141421Z 01008KT 02/M02 A3034 RMK A01 T00241021  RH  073%=      5-min Rain = 0
KOD1 141422Z 01008KT 03/M02 A3034 RMK A01 T00251020  RH  072%=      5-min Rain = 0
KOD1 141423Z 01009KT 03/M02 A3034 RMK A01 T00251021  RH  072%=      5-min Rain = 0
KOD1 141424Z 00009KT 03/M02 A3034 RMK A01 T00261021  RH  071%=      5-min Rain = 0
KOD1 141425Z 01007KT 03/M02 A3034 RMK A01 T00271020  RH  071%=      5-min Rain = 0
KOD1 141426Z 01008KT 03/M02 A3034 RMK A01 T00281020  RH  071%=      5-min Rain = 0
KOD1 141427Z 00009KT 03/M02 A3035 RMK A01 T00291019  RH  071%=      5-min Rain = 0
KOD1 141428Z 01008KT 03/M02 A3035 RMK A01 T00291019  RH  070%=      5-min Rain = 0
KOD1 141429Z 01009KT 03/M02 A3035 RMK A01 T00301019  RH  070%=      5-min Rain = 0
KOD1 141430Z 01009KT 03/M02 A3035 RMK A01 T00301020  RH  070%=      5-min Rain = 0
KOD1 141431Z 36008KT 03/M02 A3035 RMK A01 T00311020  RH  069%=      5-min Rain = 0
KOD1 141432Z 00009KT 03/M02 A3035 RMK A01 T00311019  RH  069%=      5-min Rain = 0
KOD1 141433Z 00009KT 03/M02 A3035 RMK A01 T00321020  RH  069%=      5-min Rain = 0
KOD1 141434Z 00007KT 03/M02 A3035 RMK A01 T00321020  RH  069%=      5-min Rain = 0
KOD1 141435Z 36007KT 03/M02 A3035 RMK A01 T00331017  RH  069%=      5-min Rain = 0
KOD1 141436Z 36007KT 03/M02 A3035 RMK A01 T00341018  RH  069%=      5-min Rain = 0
KOD1 141437Z 36008KT 03/M02 A3035 RMK A01 T00341018  RH  069%=      5-min Rain = 0
KOD1 141438Z 36008KT 03/M02 A3035 RMK A01 T00331019  RH  068%=      5-min Rain = 0
KOD1 141439Z 00008KT 03/M02 A3035 RMK A01 T00341018  RH  069%=      5-min Rain = 0
KOD1 141440Z 00007KT 04/M02 A3035 RMK A01 T00351018  RH  068%=      5-min Rain = 0
KOD1 141441Z 00008KT 04/M02 A3035 RMK A01 T00351018  RH  068%=      5-min Rain = 0
KOD1 141442Z 01008KT 04/M02 A3035 RMK A01 T00361019  RH  067%=      5-min Rain = 0
KOD1 141443Z 00007KT 04/M02 A3035 RMK A01 T00361019  RH  067%=      5-min Rain = 0
KOD1 141444Z 01008KT 04/M02 A3036 RMK A01 T00371018  RH  067%=      5-min Rain = 0
KOD1 141445Z 01009KT 04/M02 A3036 RMK A01 T00371020  RH  066%=      5-min Rain = 0
KOD1 141446Z 00009KT 04/M02 A3036 RMK A01 T00381019  RH  066%=      5-min Rain = 0
KOD1 141447Z 00009KT 04/M02 A3036 RMK A01 T00391019  RH  066%=      5-min Rain = 0
KOD1 141448Z 01009KT 04/M02 A3036 RMK A01 T00401019  RH  066%=      5-min Rain = 0
KOD1 141449Z 01010KT 04/M02 A3036 RMK A01 T00401019  RH  065%=      5-min Rain = 0
KOD1 141450Z 01009KT 04/M02 A3036 RMK A01 T00401019  RH  065%=      5-min Rain = 0
KOD1 141451Z 01011KT 04/M02 A3036 RMK A01 T00411019  RH  065%=      5-min Rain = 0
KOD1 141452Z 00009KT 04/M02 A3036 RMK A01 T00411020  RH  064%=      5-min Rain = 0
KOD1 141453Z 01010KT 04/M02 A3037 RMK A01 T00411020  RH  065%=      5-min Rain = 0
KOD1 141454Z 01009KT 04/M02 A3037 RMK A01 T00421018  RH  065%=      5-min Rain = 0
KOD1 141455Z 01010KT 04/M02 A3037 RMK A01 T00431018  RH  064%=      5-min Rain = 0
KOD1 141456Z 01009KT 04/M02 A3037 RMK A01 T00441019  RH  064%=      5-min Rain = 0
KOD1 141457Z 00010KT 05/M02 A3037 RMK A01 T00451018  RH  064%=      5-min Rain = 0
KOD1 141458Z 01010KT 05/M02 A3037 RMK A01 T00451019  RH  063%=      5-min Rain = 0
KOD1 141459Z 02010KT 05/M02 A3037 RMK A01 T00451019  RH  063%=      5-min Rain = 0
KOD1 141500Z 01008KT 05/M02 A3037 RMK A01 T00451020  RH  063%=      5-min Rain = 0
KOD1 141501Z 01009KT 05/M02 A3037 RMK A01 T00461019  RH  063%=      5-min Rain = 0
KOD1 141502Z 02008KT 05/M02 A3037 RMK A01 T00461019  RH  063%=      5-min Rain = 0
KOD1 141503Z 02008KT 05/M02 A3037 RMK A01 T00481017  RH  063%=      5-min Rain = 0
KOD1 141504Z 02007KT 05/M02 A3037 RMK A01 T00491017  RH  062%=      5-min Rain = 0
KOD1 141505Z 02007KT 05/M02 A3037 RMK A01 T00491018  RH  062%=      5-min Rain = 0
KOD1 141506Z 01008KT 05/M02 A3037 RMK A01 T00501016  RH  062%=      5-min Rain = 0
KOD1 141507Z 02007KT 05/M02 A3037 RMK A01 T00521015  RH  062%=      5-min Rain = 0
KOD1 141508Z 01008KT 05/M01 A3037 RMK A01 T00541014  RH  062%=      5-min Rain = 0
KOD1 141509Z 01010KT 05/M02 A3037 RMK A01 T00531017  RH  061%=      5-min Rain = 0
KOD1 141510Z 01008KT 05/M02 A3037 RMK A01 T00521017  RH  061%=      5-min Rain = 0
KOD1 141511Z 36009KT 05/M02 A3037 RMK A01 T00521017  RH  061%=      5-min Rain = 0
KOD1 141512Z 01009KT 05/M02 A3037 RMK A01 T00531015  RH  061%=      5-min Rain = 0
KOD1 141513Z 02011KT 05/M02 A3038 RMK A01 T00541016  RH  061%=      5-min Rain = 0
KOD1 141514Z 01009KT 06/M02 A3038 RMK A01 T00551015  RH  061%=      5-min Rain = 0
KOD1 141515Z 01008KT 06/M01 A3038 RMK A01 T00571013  RH  060%=      5-min Rain = 0
KOD1 141516Z 02009KT 06/M01 A3038 RMK A01 T00591014  RH  060%=      5-min Rain = 0
KOD1 141517Z 00007KT 06/M01 A3038 RMK A01 T00601012  RH  060%=      5-min Rain = 0
KOD1 141518Z 01007KT 06/M01 A3038 RMK A01 T00621012  RH  059%=      5-min Rain = 0
KOD1 141519Z 02008KT 06/M01 A3038 RMK A01 T00631011  RH  059%=      5-min Rain = 0
KOD1 141520Z 01010KT 06/M02 A3038 RMK A01 T00621015  RH  058%=      5-min Rain = 0
KOD1 141521Z 01010KT 06/M02 A3038 RMK A01 T00611015  RH  058%=      5-min Rain = 0
KOD1 141522Z 02010KT 06/M01 A3038 RMK A01 T00611014  RH  058%=      5-min Rain = 0
KOD1 141523Z 01011KT 06/M01 A3038 RMK A01 T00621014  RH  058%=      5-min Rain = 0
KOD1 141524Z 01009KT 06/M01 A3038 RMK A01 T00621014  RH  058%=      5-min Rain = 0
KOD1 141525Z 01009KT 06/M01 A3038 RMK A01 T00631013  RH  058%=      5-min Rain = 0
KOD1 141526Z 01011KT 06/M01 A3038 RMK A01 T00641014  RH  058%=      5-min Rain = 0
KOD1 141527Z 02010KT 06/M02 A3038 RMK A01 T00631015  RH  057%=      5-min Rain = 0
KOD1 141528Z 02010KT 06/M01 A3038 RMK A01 T00641013  RH  058%=      5-min Rain = 0
KOD1 141529Z 01011KT 07/M01 A3038 RMK A01 T00651014  RH  057%=      5-min Rain = 0
KOD1 141530Z 02009KT 07/M01 A3038 RMK A01 T00651014  RH  057%=      5-min Rain = 0
KOD1 141531Z 01008KT 07/M01 A3038 RMK A01 T00661013  RH  057%=      5-min Rain = 0
KOD1 141532Z 02009KT 07/M01 A3038 RMK A01 T00681011  RH  057%=      5-min Rain = 0
KOD1 141533Z 02010KT 07/M01 A3038 RMK A01 T00681013  RH  056%=      5-min Rain = 0
KOD1 141534Z 01010KT 07/M01 A3038 RMK A01 T00671014  RH  056%=      5-min Rain = 0
KOD1 141535Z 02009KT 07/M01 A3038 RMK A01 T00681012  RH  057%=      5-min Rain = 0
KOD1 141536Z 02009KT 07/M01 A3039 RMK A01 T00701011  RH  056%=      5-min Rain = 0
KOD1 141537Z 03010KT 07/M01 A3039 RMK A01 T00701014  RH  055%=      5-min Rain = 0
KOD1 141538Z 02009KT 07/M01 A3039 RMK A01 T00691013  RH  056%=      5-min Rain = 0
KOD1 141539Z 02009KT 07/M01 A3039 RMK A01 T00711012  RH  056%=      5-min Rain = 0
KOD1 141540Z 01010KT 07/M01 A3039 RMK A01 T00711013  RH  055%=      5-min Rain = 0
KOD1 141541Z 01010KT 07/M01 A3039 RMK A01 T00711013  RH  055%=      5-min Rain = 0
KOD1 141542Z 01009KT 07/M01 A3039 RMK A01 T00691014  RH  055%=      5-min Rain = 0
KOD1 141543Z 01007KT 07/M01 A3039 RMK A01 T00691013  RH  056%=      5-min Rain = 0
KOD1 141544Z 01008KT 07/M01 A3039 RMK A01 T00711011  RH  056%=      5-min Rain = 0
KOD1 141545Z 01010KT 07/M01 A3039 RMK A01 T00731011  RH  055%=      5-min Rain = 0
KOD1 141546Z 02011KT 07/M01 A3039 RMK A01 T00721013  RH  055%=      5-min Rain = 0
KOD1 141547Z 03010KT 07/M01 A3039 RMK A01 T00701014  RH  055%=      5-min Rain = 0
KOD1 141548Z 02010KT 07/M01 A3039 RMK A01 T00721012  RH  055%=      5-min Rain = 0
KOD1 141549Z 02010KT 07/M01 A3039 RMK A01 T00731012  RH  055%=      5-min Rain = 0
KOD1 141550Z 01009KT 07/M01 A3039 RMK A01 T00721014  RH  054%=      5-min Rain = 0
KOD1 141551Z 01009KT 07/M01 A3039 RMK A01 T00711013  RH  055%=      5-min Rain = 0
KOD1 141552Z 03011KT 07/M01 A3039 RMK A01 T00731011  RH  055%=      5-min Rain = 0
KOD1 141553Z 03012KT 07/M01 A3039 RMK A01 T00731013  RH  054%=      5-min Rain = 0
KOD1 141554Z 03011KT 07/M01 A3039 RMK A01 T00731012  RH  054%=      5-min Rain = 0
KOD1 141555Z 03009KT 08/M01 A304 RMK A01 T00751011  RH  054%=      5-min Rain = 0
KOD1 141556Z 03011KT 08/M01 A304 RMK A01 T00771010  RH  054%=      5-min Rain = 0
KOD1 141557Z 02010KT 08/M01 A304 RMK A01 T00771012  RH  053%=      5-min Rain = 0
KOD1 141558Z 02012KT 08/M01 A304 RMK A01 T00781011  RH  053%=      5-min Rain = 0
KOD1 141559Z 02011KT 08/M01 A304 RMK A01 T00781011  RH  053%=      5-min Rain = 0
KOD1 141600Z 02011KT 08/M01 A304 RMK A01 T00801010  RH  053%=      5-min Rain = 0
KOD1 141601Z 02012KT 08/M01 A304 RMK A01 T00811011  RH  053%=      5-min Rain = 0
KOD1 141602Z 02013KT 08/M01 A304 RMK A01 T00801012  RH  052%=      5-min Rain = 0
KOD1 141603Z 03010KT 08/M01 A304 RMK A01 T00801011  RH  053%=      5-min Rain = 0
KOD1 141604Z 04012KT 08/M01 A304 RMK A01 T00811010  RH  052%=      5-min Rain = 0
KOD1 141605Z 03010KT 08/M01 A304 RMK A01 T00801012  RH  052%=      5-min Rain = 0
KOD1 141606Z 04010KT 08/M01 A304 RMK A01 T00821009  RH  052%=      5-min Rain = 0
KOD1 141607Z 04011KT 08/M01 A304 RMK A01 T00831010  RH  052%=      5-min Rain = 0
KOD1 141608Z 03009KT 08/M01 A304 RMK A01 T00831010  RH  052%=      5-min Rain = 0
KOD1 141609Z 03010KT 08/M01 A304 RMK A01 T00831011  RH  052%=      5-min Rain = 0
KOD1 141610Z 02012G17KT 08/M01 A304 RMK A01 T00841010  RH  052%=      5-min Rain = 0
KOD1 141611Z 02014KT 08/M01 A304 RMK A01 T00841011  RH  051%=      5-min Rain = 0
KOD1 141612Z 02014KT 08/M01 A304 RMK A01 T00831012  RH  051%=      5-min Rain = 0
KOD1 141613Z 03012KT 08/M01 A304 RMK A01 T00811012  RH  052%=      5-min Rain = 0
KOD1 141614Z 02011KT 08/M01 A304 RMK A01 T00821010  RH  052%=      5-min Rain = 0
KOD1 141615Z 03012KT 09/M01 A304 RMK A01 T00851009  RH  052%=      5-min Rain = 0
KOD1 141616Z 02015KT 09/M01 A304 RMK A01 T00851011  RH  051%=      5-min Rain = 0
KOD1 141617Z 03013KT 08/M01 A304 RMK A01 T00841011  RH  051%=      5-min Rain = 0
KOD1 141618Z 03012KT 09/M01 A304 RMK A01 T00851011  RH  051%=      5-min Rain = 0
KOD1 141619Z 03013KT 08/M01 A304 RMK A01 T00841010  RH  051%=      5-min Rain = 0
KOD1 141620Z 04014KT 09/M01 A304 RMK A01 T00861010  RH  051%=      5-min Rain = 0
KOD1 141621Z 03015KT 08/M01 A304 RMK A01 T00841011  RH  051%=      5-min Rain = 0
KOD1 141622Z 04011KT 08/M01 A304 RMK A01 T00841010  RH  052%=      5-min Rain = 0
KOD1 141623Z 03010G15KT 09/M01 A304 RMK A01 T00871008  RH  051%=      5-min Rain = 0
KOD1 141624Z 03013KT 09/M01 A304 RMK A01 T00891010  RH  050%=      5-min Rain = 0
KOD1 141625Z 04012KT 09/M01 A304 RMK A01 T00881010  RH  050%=      5-min Rain = 0
KOD1 141626Z 03013KT 09/M01 A3041 RMK A01 T00891009  RH  050%=      5-min Rain = 0
KOD1 141627Z 03011G16KT 09/M01 A3041 RMK A01 T00901008  RH  050%=      5-min Rain = 0
KOD1 141628Z 04011KT 09/M01 A3041 RMK A01 T00931008  RH  049%=      5-min Rain = 0
KOD1 141629Z 04014KT 09/M01 A3041 RMK A01 T00931009  RH  049%=      5-min Rain = 0
KOD1 141630Z 03014KT 09/M01 A3041 RMK A01 T00911010  RH  049%=      5-min Rain = 0
KOD1 141631Z 04014KT 09/M01 A3041 RMK A01 T00901011  RH  049%=      5-min Rain = 0
KOD1 141632Z 04013KT 09/M01 A3041 RMK A01 T00891010  RH  050%=      5-min Rain = 0
KOD1 141633Z 05016KT 09/M01 A3041 RMK A01 T00891010  RH  050%=      5-min Rain = 0
KOD1 141634Z 04012KT 09/M01 A3041 RMK A01 T00891009  RH  050%=      5-min Rain = 0
KOD1 141635Z 03012KT 09/M01 A3041 RMK A01 T00901010  RH  050%=      5-min Rain = 0
KOD1 141636Z 04014KT 09/M01 A3041 RMK A01 T00901008  RH  050%=      5-min Rain = 0
KOD1 141637Z 04016KT 09/M01 A3041 RMK A01 T00911009  RH  050%=      5-min Rain = 0
KOD1 141638Z 03013KT 09/M01 A3041 RMK A01 T00901010  RH  049%=      5-min Rain = 0
KOD1 141639Z 03013KT 09/M01 A3041 RMK A01 T00901009  RH  050%=      5-min Rain = 0
KOD1 141640Z 04013KT 09/M01 A3041 RMK A01 T00911009  RH  050%=      5-min Rain = 0
KOD1 141641Z 04014G19KT 09/M01 A3041 RMK A01 T00941007  RH  049%=      5-min Rain = 0
KOD1 141642Z 03012KT 10/M01 A3041 RMK A01 T00951008  RH  049%=      5-min Rain = 0
KOD1 141643Z 03013KT 10/M01 A3041 RMK A01 T00951008  RH  048%=      5-min Rain = 0
KOD1 141644Z 02013KT 10/M01 A3041 RMK A01 T00951008  RH  048%=      5-min Rain = 0
KOD1 141645Z 03013KT 10/M01 A3041 RMK A01 T00961008  RH  048%=      5-min Rain = 0
KOD1 141646Z 03012KT 10/M01 A3041 RMK A01 T00951008  RH  048%=      5-min Rain = 0
KOD1 141647Z 02012G17KT 10/M01 A3041 RMK A01 T00961007  RH  048%=      5-min Rain = 0
KOD1 141648Z 02015KT 10/M01 A3041 RMK A01 T00971008  RH  048%=      5-min Rain = 0
KOD1 141649Z 01013KT 10/M01 A3041 RMK A01 T00951009  RH  048%=      5-min Rain = 0
KOD1 141650Z 02013KT 10/M01 A3041 RMK A01 T00961008  RH  048%=      5-min Rain = 0
KOD1 141651Z 02015KT 10/M01 A3041 RMK A01 T00951008  RH  048%=      5-min Rain = 0
KOD1 141652Z 01017KT 10/M01 A3041 RMK A01 T00951009  RH  048%=      5-min Rain = 0
KOD1 141653Z 02016KT 10/M01 A3041 RMK A01 T00951008  RH  049%=      5-min Rain = 0
KOD1 141654Z 02014KT 10/M01 A3041 RMK A01 T00971008  RH  048%=      5-min Rain = 0
KOD1 141655Z 03013KT 10/M01 A3041 RMK A01 T00981007  RH  048%=      5-min Rain = 0
KOD1 141656Z 02013KT 10/M01 A3041 RMK A01 T00961010  RH  048%=      5-min Rain = 0
KOD1 141657Z 03015KT 10/M01 A3041 RMK A01 T00961008  RH  048%=      5-min Rain = 0
KOD1 141658Z 04014KT 10/M01 A3041 RMK A01 T00981008  RH  048%=      5-min Rain = 0
KOD1 141659Z 03013KT 10/M01 A3041 RMK A01 T00961009  RH  048%=      5-min Rain = 0
KOD1 141700Z 04012KT 10/M01 A3041 RMK A01 T00961007  RH  048%=      5-min Rain = 0
KOD1 141701Z 04013KT 10/M01 A3041 RMK A01 T00981008  RH  048%=      5-min Rain = 0
KOD1 141702Z 04012KT 10/M01 A3041 RMK A01 T00971008  RH  048%=      5-min Rain = 0
KOD1 141703Z 02013KT 10/M01 A3041 RMK A01 T00981007  RH  048%=      5-min Rain = 0
KOD1 141704Z 02013KT 10/M01 A3041 RMK A01 T00991007  RH  048%=      5-min Rain = 0
KOD1 141705Z 04013KT 10/M01 A3041 RMK A01 T01001006  RH  047%=      5-min Rain = 0
KOD1 141706Z 02012KT 10/M01 A3041 RMK A01 T00991008  RH  047%=      5-min Rain = 0
KOD1 141707Z 02010KT 10/M01 A3041 RMK A01 T00971008  RH  048%=      5-min Rain = 0
KOD1 141708Z 03011KT 10/M01 A3041 RMK A01 T00981007  RH  048%=      5-min Rain = 0
KOD1 141709Z 04011KT 10/M01 A3041 RMK A01 T00991006  RH  048%=      5-min Rain = 0
KOD1 141710Z 03011G16KT 10/M01 A3041 RMK A01 T01021005  RH  047%=      5-min Rain = 0
KOD1 141711Z 02013KT 10/M01 A3041 RMK A01 T01021007  RH  047%=      5-min Rain = 0
KOD1 141712Z 01013KT 10/M01 A3041 RMK A01 T01021007  RH  047%=      5-min Rain = 0
KOD1 141713Z 02015KT 10/M01 A3041 RMK A01 T01021007  RH  047%=      5-min Rain = 0
KOD1 141714Z 03012KT 10/M01 A3041 RMK A01 T01001008  RH  047%=      5-min Rain = 0
KOD1 141715Z 04011KT 10/M01 A3041 RMK A01 T00991007  RH  048%=      5-min Rain = 0
KOD1 141716Z 01012G18KT 10/M01 A3041 RMK A01 T01011005  RH  048%=      5-min Rain = 0
KOD1 141717Z 02017KT 10/M01 A3041 RMK A01 T01041005  RH  047%=      5-min Rain = 0
KOD1 141718Z 02015KT 11/M01 A3041 RMK A01 T01051006  RH  046%=      5-min Rain = 0
KOD1 141719Z 02015KT 10/M01 A3041 RMK A01 T01021008  RH  046%=      5-min Rain = 0
KOD1 141720Z 02013KT 10/M01 A3041 RMK A01 T01041006  RH  046%=      5-min Rain = 0
KOD1 141721Z 02011KT 11/M01 A3041 RMK A01 T01061006  RH  046%=      5-min Rain = 0
KOD1 141722Z 03012KT 11/M01 A3041 RMK A01 T01051007  RH  046%=      5-min Rain = 0
KOD1 141723Z 03014KT 11/M01 A3041 RMK A01 T01061006  RH  046%=      5-min Rain = 0
KOD1 141724Z 04016KT 11/M01 A3041 RMK A01 T01081006  RH  045%=      5-min Rain = 0
KOD1 141725Z 03014KT 11/M01 A3041 RMK A01 T01071008  RH  045%=      5-min Rain = 0
KOD1 141726Z 03012KT 11/M01 A3041 RMK A01 T01051008  RH  045%=      5-min Rain = 0
KOD1 141727Z 03012KT 11/M01 A3041 RMK A01 T01081005  RH  046%=      5-min Rain = 0
KOD1 141728Z 03016KT 11/M01 A3041 RMK A01 T01081006  RH  045%=      5-min Rain = 0
KOD1 141729Z 03015G20KT 11/M01 A3041 RMK A01 T01071009  RH  045%=      5-min Rain = 0
KOD1 141730Z 01015KT 11/M01 A3041 RMK A01 T01051007  RH  045%=      5-min Rain = 0
KOD1 141731Z 03021KT 11/M01 A3041 RMK A01 T01061009  RH  045%=      5-min Rain = 0
KOD1 141732Z 03018KT 11/M01 A3041 RMK A01 T01051011  RH  045%=      5-min Rain = 0
KOD1 141733Z 04015G22KT 10/M01 A3041 RMK A01 T01041010  RH  045%=      5-min Rain = 0
KOD1 141734Z 04018KT 11/M01 A3041 RMK A01 T01061009  RH  045%=      5-min Rain = 0
KOD1 141735Z 02015KT 11/M01 A3041 RMK A01 T01051009  RH  045%=      5-min Rain = 0
KOD1 141736Z 04010KT 11/M01 A3041 RMK A01 T01061008  RH  045%=      5-min Rain = 0
KOD1 141737Z 05015KT 11/M01 A3041 RMK A01 T01101007  RH  044%=      5-min Rain = 0
KOD1 141738Z 04014KT 11/M01 A3041 RMK A01 T01091008  RH  044%=      5-min Rain = 0
KOD1 141739Z 05014KT 11/M01 A3041 RMK A01 T01091007  RH  045%=      5-min Rain = 0
KOD1 141740Z 04017KT 11/M01 A304 RMK A01 T01091008  RH  044%=      5-min Rain = 0
KOD1 141741Z 04014KT 11/M01 A304 RMK A01 T01081008  RH  045%=      5-min Rain = 0
KOD1 141742Z 04014KT 11/M01 A304 RMK A01 T01081008  RH  045%=      5-min Rain = 0
KOD1 141743Z 03017KT 11/M01 A304 RMK A01 T01101008  RH  044%=      5-min Rain = 0
KOD1 141744Z 03014KT 11/M01 A304 RMK A01 T01091009  RH  044%=      5-min Rain = 0
KOD1 141745Z 03015KT 11/M01 A304 RMK A01 T01111007  RH  044%=      5-min Rain = 0
KOD1 141746Z 03016KT 11/M01 A304 RMK A01 T01091009  RH  044%=      5-min Rain = 0
KOD1 141747Z 02016KT 11/M01 A3041 RMK A01 T01081010  RH  044%=      5-min Rain = 0
KOD1 141748Z 03016KT 11/M01 A3041 RMK A01 T01091009  RH  044%=      5-min Rain = 0
KOD1 141749Z 03014KT 11/M01 A3041 RMK A01 T01091010  RH  043%=      5-min Rain = 0
KOD1 141750Z 02016KT 11/M01 A304 RMK A01 T01071011  RH  044%=      5-min Rain = 0
KOD1 141751Z 02017KT 11/M01 A304 RMK A01 T01091009  RH  044%=      5-min Rain = 0
KOD1 141752Z 03015G20KT 11/M01 A304 RMK A01 T01101009  RH  044%=      5-min Rain = 0
KOD1 141753Z 03015KT 11/M01 A304 RMK A01 T01111008  RH  044%=      5-min Rain = 0
KOD1 141754Z 03016KT 11/M01 A304 RMK A01 T01111009  RH  044%=      5-min Rain = 0
KOD1 141755Z 02015G22KT 11/M01 A304 RMK A01 T01091009  RH  044%=      5-min Rain = 0
KOD1 141756Z 04014KT 11/M01 A304 RMK A01 T01101007  RH  044%=      5-min Rain = 0
KOD1 141757Z 04013KT 11/M01 A304 RMK A01 T01101007  RH  044%=      5-min Rain = 0
KOD1 141758Z 04012G17KT 11/M01 A304 RMK A01 T01111007  RH  044%=      5-min Rain = 0
KOD1 141759Z 04015KT 11/M01 A304 RMK A01 T01121007  RH  044%=      5-min Rain = 0
KOD1 141800Z 03013KT 11/M01 A304 RMK A01 T01111008  RH  044%=      5-min Rain = 0
KOD1 141801Z 02012G17KT 11/M01 A304 RMK A01 T01131006  RH  044%=      5-min Rain = 0
KOD1 141802Z 04015G20KT 12/M01 A304 RMK A01 T01171005  RH  043%=      5-min Rain = 0
KOD1 141803Z 04017KT 12/M01 A304 RMK A01 T01161008  RH  042%=      5-min Rain = 0
KOD1 141804Z 04017KT 11/M01 A304 RMK A01 T01131008  RH  043%=      5-min Rain = 0
KOD1 141805Z 04014KT 11/M01 A304 RMK A01 T01131007  RH  043%=      5-min Rain = 0
KOD1 141806Z 03015KT 11/M01 A304 RMK A01 T01141007  RH  043%=      5-min Rain = 0
KOD1 141807Z 04013KT 11/M01 A304 RMK A01 T01141007  RH  043%=      5-min Rain = 0
KOD1 141808Z 04016KT 12/M01 A304 RMK A01 T01151008  RH  043%=      5-min Rain = 0
KOD1 141809Z 03018KT 12/M01 A304 RMK A01 T01161006  RH  043%=      5-min Rain = 0
KOD1 141810Z 03015KT 11/M01 A304 RMK A01 T01121010  RH  043%=      5-min Rain = 0
KOD1 141811Z 03016KT 11/M01 A304 RMK A01 T01101008  RH  044%=      5-min Rain = 0
KOD1 141812Z 02016KT 11/M01 A304 RMK A01 T01111007  RH  044%=      5-min Rain = 0
KOD1 141813Z 03013KT 11/M01 A304 RMK A01 T01121007  RH  043%=      5-min Rain = 0
KOD1 141814Z 04014KT 11/M01 A304 RMK A01 T01131007  RH  043%=      5-min Rain = 0
KOD1 141815Z 03014KT 11/M01 A304 RMK A01 T01131007  RH  043%=      5-min Rain = 0
KOD1 141816Z 03013KT 11/M01 A3039 RMK A01 T01131006  RH  044%=      5-min Rain = 0
KOD1 141817Z 03011KT 11/M01 A3039 RMK A01 T01131007  RH  043%=      5-min Rain = 0
KOD1 141818Z 02012KT 11/M01 A3039 RMK A01 T01141006  RH  043%=      5-min Rain = 0
KOD1 141819Z 02012KT 11/M01 A3039 RMK A01 T01121008  RH  043%=      5-min Rain = 0
KOD1 141820Z 02011KT 11/M00 A3039 RMK A01 T01141004  RH  044%=      5-min Rain = 0
KOD1 141821Z 01010KT 12/M01 A3039 RMK A01 T01171005  RH  043%=      5-min Rain = 0
KOD1 141822Z 02012G17KT 12/M00 A3039 RMK A01 T01191004  RH  043%=      5-min Rain = 0
KOD1 141823Z 03014KT 12/M01 A3039 RMK A01 T01171007  RH  042%=      5-min Rain = 0
KOD1 141824Z 04013G18KT 12/M01 A3039 RMK A01 T01161006  RH  043%=      5-min Rain = 0
KOD1 141825Z 05013KT 12/M01 A3039 RMK A01 T01171006  RH  043%=      5-min Rain = 0
KOD1 141826Z 05014KT 12/M01 A3039 RMK A01 T01171006  RH  043%=      5-min Rain = 0
KOD1 141827Z 04014KT 12/M01 A3039 RMK A01 T01171007  RH  043%=      5-min Rain = 0
KOD1 141828Z 03015KT 12/M01 A3039 RMK A01 T01171005  RH  043%=      5-min Rain = 0
KOD1 141829Z 02013KT 12/M01 A3039 RMK A01 T01191005  RH  042%=      5-min Rain = 0
KOD1 141830Z 02015KT 12/M01 A3039 RMK A01 T01171007  RH  042%=      5-min Rain = 0
KOD1 141831Z 02012KT 11/M01 A3039 RMK A01 T01131007  RH  043%=      5-min Rain = 0
KOD1 141832Z 03009KT 11/M01 A3039 RMK A01 T01131006  RH  044%=      5-min Rain = 0
KOD1 141833Z 04013KT 12/M00 A3039 RMK A01 T01161004  RH  044%=      5-min Rain = 0
KOD1 141834Z 04012KT 12/M00 A3039 RMK A01 T01201003  RH  043%=      5-min Rain = 0
KOD1 141835Z 04015KT 12/M00 A3039 RMK A01 T01221004  RH  042%=      5-min Rain = 0
KOD1 141836Z 03016KT 12/M00 A3039 RMK A01 T01221004  RH  042%=      5-min Rain = 0
KOD1 141837Z 03013KT 12/M01 A3039 RMK A01 T01221005  RH  042%=      5-min Rain = 0
KOD1 141838Z 03012KT 12/M01 A3039 RMK A01 T01191006  RH  042%=      5-min Rain = 0
KOD1 141839Z 02011KT 12/M00 A3039 RMK A01 T01181004  RH  043%=      5-min Rain = 0
KOD1 141840Z 03009KT 12/M01 A3039 RMK A01 T01201005  RH  042%=      5-min Rain = 0
KOD1 141841Z 02010KT 12/M01 A3039 RMK A01 T01181005  RH  043%=      5-min Rain = 0
KOD1 141842Z 03011KT 12/M01 A3039 RMK A01 T01171005  RH  043%=      5-min Rain = 0
KOD1 141843Z 03011KT 12/M00 A3039 RMK A01 T01191003  RH  043%=      5-min Rain = 0
KOD1 141844Z 02013KT 12/M00 A3039 RMK A01 T01211004  RH  042%=      5-min Rain = 0
KOD1 141845Z 02013KT 12/M01 A3039 RMK A01 T01221005  RH  042%=      5-min Rain = 0
KOD1 141846Z 02012KT 12/M01 A3039 RMK A01 T01211005  RH  042%=      5-min Rain = 0
KOD1 141847Z 01013KT 12/M01 A3039 RMK A01 T01201006  RH  042%=      5-min Rain = 0
KOD1 141848Z 02008KT 12/M01 A3039 RMK A01 T01171006  RH  043%=      5-min Rain = 0
KOD1 141849Z 02008G14KT 12/M00 A3039 RMK A01 T01181004  RH  043%=      5-min Rain = 0
KOD1 141850Z 03011KT 12/M00 A3039 RMK A01 T01191004  RH  042%=      5-min Rain = 0
KOD1 141851Z 05011KT 12/M00 A3039 RMK A01 T01181004  RH  043%=      5-min Rain = 0
KOD1 141852Z 05007KT 12/M01 A3038 RMK A01 T01181005  RH  043%=      5-min Rain = 0
KOD1 141853Z 04009KT 12/M00 A3038 RMK A01 T01181004  RH  043%=      5-min Rain = 0
KOD1 141854Z 03007KT 12/M00 A3038 RMK A01 T01211003  RH  043%=      5-min Rain = 0
KOD1 141855Z 03008KT 12/M00 A3038 RMK A01 T01221003  RH  042%=      5-min Rain = 0
KOD1 141856Z 03007KT 12/M00 A3038 RMK A01 T01241002  RH  042%=      5-min Rain = 0
KOD1 141857Z 04011KT 13/M00 A3038 RMK A01 T01251002  RH  042%=      5-min Rain = 0
KOD1 141858Z 02013G19KT 13/M00 A3038 RMK A01 T01261003  RH  041%=      5-min Rain = 0
KOD1 141859Z 03008KT 13/M00 A3038 RMK A01 T01261002  RH  041%=      5-min Rain = 0
KOD1 141900Z 05010KT 13/M00 A3038 RMK A01 T01261003  RH  041%=      5-min Rain = 0
KOD1 141901Z 04011KT 12/M00 A3038 RMK A01 T01231003  RH  042%=      5-min Rain = 0
KOD1 141902Z 04012KT 12/M00 A3038 RMK A01 T01231003  RH  042%=      5-min Rain = 0
KOD1 141903Z 04013KT 12/M00 A3038 RMK A01 T01241003  RH  042%=      5-min Rain = 0
KOD1 141904Z 03014KT 13/M00 A3038 RMK A01 T01261001  RH  042%=      5-min Rain = 0
KOD1 141905Z 04012KT 13/M00 A3038 RMK A01 T01251003  RH  041%=      5-min Rain = 0
KOD1 141906Z 02009KT 12/M00 A3038 RMK A01 T01241002  RH  042%=      5-min Rain = 0
KOD1 141907Z 04010KT 12/M00 A3038 RMK A01 T01231002  RH  042%=      5-min Rain = 0
KOD1 141908Z 04011KT 13/M00 A3038 RMK A01 T01251001  RH  042%=      5-min Rain = 0
KOD1 141909Z 03011KT 13/00 A3038 RMK A01 T012600-0  RH  042%=      5-min Rain = 0
KOD1 141910Z 02009KT 13/00 A3038 RMK A01 T01290000  RH  041%=      5-min Rain = 0
KOD1 141911Z 02013KT 13/M00 A3038 RMK A01 T01321001  RH  040%=      5-min Rain = 0
KOD1 141912Z 02013KT 13/M00 A3038 RMK A01 T01281003  RH  040%=      5-min Rain = 0
KOD1 141913Z 02015KT 13/M00 A3038 RMK A01 T01261003  RH  041%=      5-min Rain = 0
KOD1 141914Z 02015KT 13/M00 A3038 RMK A01 T01251003  RH  041%=      5-min Rain = 0
KOD1 141915Z 01013KT 13/M00 A3038 RMK A01 T01251002  RH  042%=      5-min Rain = 0
KOD1 141916Z 01012KT 13/M00 A3038 RMK A01 T01261002  RH  041%=      5-min Rain = 0
KOD1 141917Z 02010KT 13/M00 A3038 RMK A01 T01261002  RH  041%=      5-min Rain = 0
KOD1 141918Z 04012KT 13/M00 A3037 RMK A01 T01281001  RH  041%=      5-min Rain = 0
KOD1 141919Z 05010KT 13/M00 A3037 RMK A01 T01291002  RH  041%=      5-min Rain = 0
KOD1 141920Z 03010KT 13/M00 A3037 RMK A01 T01291001  RH  041%=      5-min Rain = 0
KOD1 141921Z 02010KT 13/M00 A3037 RMK A01 T01281003  RH  041%=      5-min Rain = 0
KOD1 141922Z 03009KT 13/M00 A3037 RMK A01 T01261003  RH  041%=      5-min Rain = 0
KOD1 141923Z 02013KT 13/M00 A3037 RMK A01 T01271001  RH  041%=      5-min Rain = 0
KOD1 141924Z 02012G17KT 13/M00 A3037 RMK A01 T01271002  RH  041%=      5-min Rain = 0
KOD1 141925Z 01012KT 13/M00 A3037 RMK A01 T01281002  RH  041%=      5-min Rain = 0
KOD1 141926Z 03013KT 13/M00 A3037 RMK A01 T01271002  RH  041%=      5-min Rain = 0
KOD1 141927Z 04011KT 13/M00 A3037 RMK A01 T01291001  RH  041%=      5-min Rain = 0
KOD1 141928Z 03012KT 13/00 A3037 RMK A01 T013200-0  RH  040%=      5-min Rain = 0
KOD1 141929Z 02009KT 13/M00 A3037 RMK A01 T01301002  RH  040%=      5-min Rain = 0
KOD1 141930Z 03013KT 13/M00 A3037 RMK A01 T01311001  RH  040%=      5-min Rain = 0
KOD1 141931Z 01013KT 13/00 A3037 RMK A01 T013200-0  RH  040%=      5-min Rain = 0
KOD1 141932Z 03010KT 13/M00 A3037 RMK A01 T01321001  RH  040%=      5-min Rain = 0
KOD1 141933Z 03009KT 13/M00 A3037 RMK A01 T01321001  RH  040%=      5-min Rain = 0
KOD1 141934Z 04008KT 13/M00 A3037 RMK A01 T01331001  RH  040%=      5-min Rain = 0
KOD1 141935Z 05008KT 13/M00 A3037 RMK A01 T01321001  RH  040%=      5-min Rain = 0
KOD1 141936Z 05009KT 13/M00 A3037 RMK A01 T01331001  RH  040%=      5-min Rain = 0
KOD1 141937Z 05011KT 13/M00 A3037 RMK A01 T01331001  RH  040%=      5-min Rain = 0
KOD1 141938Z 06008KT 13/M00 A3037 RMK A01 T01301002  RH  040%=      5-min Rain = 0
KOD1 141939Z 04013KT 13/M00 A3037 RMK A01 T01281002  RH  041%=      5-min Rain = 0
KOD1 141940Z 05008KT 13/M00 A3037 RMK A01 T01291001  RH  041%=      5-min Rain = 0
KOD1 141941Z 04013KT 13/M00 A3037 RMK A01 T01301001  RH  041%=      5-min Rain = 0
KOD1 141942Z 03012KT 13/M00 A3037 RMK A01 T01311001  RH  040%=      5-min Rain = 0
KOD1 141943Z 03013KT 13/M00 A3037 RMK A01 T01301001  RH  041%=      5-min Rain = 0
KOD1 141944Z 02010KT 13/M00 A3037 RMK A01 T01271003  RH  041%=      5-min Rain = 0
KOD1 141945Z 02010KT 13/M00 A3037 RMK A01 T01251002  RH  042%=      5-min Rain = 0
KOD1 141946Z 03010KT 13/M00 A3037 RMK A01 T01261001  RH  042%=      5-min Rain = 0
KOD1 141947Z 04011KT 13/00 A3037 RMK A01 T012900-0  RH  041%=      5-min Rain = 0
KOD1 141948Z 03009KT 13/M00 A3037 RMK A01 T01301001  RH  041%=      5-min Rain = 0
KOD1 141949Z 01010KT 13/M00 A3037 RMK A01 T01291001  RH  041%=      5-min Rain = 0
KOD1 141950Z 02012KT 13/M00 A3037 RMK A01 T01271001  RH  041%=      5-min Rain = 0
KOD1 141951Z 04011KT 13/M00 A3037 RMK A01 T01271001  RH  041%=      5-min Rain = 0
KOD1 141952Z 03009KT 13/00 A3037 RMK A01 T01300001  RH  041%=      5-min Rain = 0
KOD1 141953Z 03012KT 13/M00 A3037 RMK A01 T01321001  RH  040%=      5-min Rain = 0
KOD1 141954Z 02011KT 13/M00 A3037 RMK A01 T01301001  RH  040%=      5-min Rain = 0
KOD1 141955Z 02011KT 13/00 A3037 RMK A01 T01300000  RH  041%=      5-min Rain = 0
KOD1 141956Z 03014KT 13/00 A3037 RMK A01 T013100-0  RH  040%=      5-min Rain = 0
KOD1 141957Z 02012KT 13/00 A3037 RMK A01 T013000-0  RH  041%=      5-min Rain = 0
KOD1 141958Z 03011KT 13/00 A3037 RMK A01 T013100-0  RH  041%=      5-min Rain = 0
KOD1 141959Z 03011KT 13/00 A3037 RMK A01 T013000-0  RH  041%=      5-min Rain = 0
KOD1 142000Z 04009KT 13/00 A3037 RMK A01 T01310000  RH  041%=      5-min Rain = 0
KOD1 142001Z 01010KT 13/00 A3037 RMK A01 T01320001  RH  041%=      5-min Rain = 0
KOD1 142002Z 02010KT 13/00 A3037 RMK A01 T01330000  RH  040%=      5-min Rain = 0
KOD1 142003Z 01009KT 13/00 A3036 RMK A01 T01330001  RH  040%=      5-min Rain = 0
KOD1 142004Z 36011KT 13/00 A3036 RMK A01 T013300-0  RH  040%=      5-min Rain = 0
KOD1 142005Z 00009KT 13/00 A3036 RMK A01 T013000-0  RH  041%=      5-min Rain = 0
KOD1 142006Z 00008KT 13/00 A3036 RMK A01 T01290000  RH  041%=      5-min Rain = 0
KOD1 142007Z 03009KT 13/00 A3036 RMK A01 T01310001  RH  041%=      5-min Rain = 0
KOD1 142008Z 03007KT 13/M00 A3036 RMK A01 T01301001  RH  041%=      5-min Rain = 0
KOD1 142009Z 02009KT 13/00 A3036 RMK A01 T01310001  RH  041%=      5-min Rain = 0
KOD1 142010Z 02009KT 13/M00 A3036 RMK A01 T01291001  RH  041%=      5-min Rain = 0
KOD1 142011Z 03007KT 13/M00 A3036 RMK A01 T01271001  RH  041%=      5-min Rain = 0
KOD1 142012Z 03010KT 13/00 A3036 RMK A01 T01280001  RH  042%=      5-min Rain = 0
KOD1 142013Z 05009KT 13/00 A3036 RMK A01 T012900-0  RH  041%=      5-min Rain = 0
KOD1 142014Z 02011KT 13/00 A3036 RMK A01 T01290001  RH  041%=      5-min Rain = 0
KOD1 142015Z 02012KT 13/00 A3036 RMK A01 T01310001  RH  041%=      5-min Rain = 0
KOD1 142016Z 03013KT 13/00 A3036 RMK A01 T01310000  RH  041%=      5-min Rain = 0
KOD1 142017Z 02017KT 13/00 A3036 RMK A01 T013200-0  RH  040%=      5-min Rain = 0
KOD1 142018Z 02012KT 13/M00 A3036 RMK A01 T01301001  RH  041%=      5-min Rain = 0
KOD1 142019Z 01011KT 13/00 A3036 RMK A01 T01310000  RH  041%=      5-min Rain = 0
KOD1 142020Z 02009KT 13/00 A3036 RMK A01 T01300000  RH  041%=      5-min Rain = 0
KOD1 142021Z 03013KT 13/00 A3036 RMK A01 T01320001  RH  041%=      5-min Rain = 0
KOD1 142022Z 03010KT 13/00 A3036 RMK A01 T01320000  RH  040%=      5-min Rain = 0
KOD1 142023Z 04011KT 13/00 A3036 RMK A01 T013200-0  RH  040%=      5-min Rain = 0
KOD1 142024Z 04009KT 13/00 A3036 RMK A01 T01330001  RH  040%=      5-min Rain = 0
KOD1 142025Z 01008G13KT 13/00 A3036 RMK A01 T01340001  RH  040%=      5-min Rain = 0
KOD1 142026Z 01011KT 13/M00 A3036 RMK A01 T01321001  RH  040%=      5-min Rain = 0
KOD1 142027Z 35013KT 13/00 A3036 RMK A01 T013100-0  RH  041%=      5-min Rain = 0
KOD1 142028Z 36012KT 13/M00 A3036 RMK A01 T01301001  RH  041%=      5-min Rain = 0
KOD1 142029Z 00014KT 13/00 A3036 RMK A01 T01310000  RH  041%=      5-min Rain = 0
KOD1 142030Z 36012KT 13/00 A3036 RMK A01 T013000-0  RH  041%=      5-min Rain = 0
KOD1 142031Z 01015KT 13/00 A3036 RMK A01 T01300001  RH  041%=      5-min Rain = 0
KOD1 142032Z 04011KT 13/00 A3036 RMK A01 T01330002  RH  041%=      5-min Rain = 0
KOD1 142033Z 05011KT 13/00 A3036 RMK A01 T01340001  RH  040%=      5-min Rain = 0
KOD1 142034Z 03010KT 13/00 A3036 RMK A01 T01330000  RH  040%=      5-min Rain = 0
KOD1 142035Z 04010KT 13/00 A3036 RMK A01 T01320000  RH  040%=      5-min Rain = 0
KOD1 142036Z 04014KT 13/M00 A3036 RMK A01 T01331001  RH  040%=      5-min Rain = 0
KOD1 142037Z 04013KT 13/M00 A3036 RMK A01 T01331001  RH  040%=      5-min Rain = 0
KOD1 142038Z 03013KT 13/M00 A3036 RMK A01 T01321001  RH  040%=      5-min Rain = 0
KOD1 142039Z 02011G16KT 13/M00 A3036 RMK A01 T01311002  RH  040%=      5-min Rain = 0
KOD1 142040Z 03015KT 13/M00 A3036 RMK A01 T01311001  RH  040%=      5-min Rain = 0
KOD1 142041Z 03012G18KT 13/M00 A3036 RMK A01 T01321001  RH  040%=      5-min Rain = 0
KOD1 142042Z 04014KT 13/M00 A3036 RMK A01 T01341001  RH  039%=      5-min Rain = 0
KOD1 142043Z 03013KT 13/M00 A3036 RMK A01 T01331001  RH  040%=      5-min Rain = 0
KOD1 142044Z 04012KT 13/00 A3036 RMK A01 T013300-0  RH  040%=      5-min Rain = 0
KOD1 142045Z 05013KT 13/00 A3036 RMK A01 T013300-0  RH  040%=      5-min Rain = 0
KOD1 142046Z 03010KT 13/00 A3035 RMK A01 T013300-0  RH  040%=      5-min Rain = 0
KOD1 142047Z 01009KT 13/00 A3035 RMK A01 T01340001  RH  040%=      5-min Rain = 0
KOD1 142048Z 02010KT 13/00 A3036 RMK A01 T01340000  RH  040%=      5-min Rain = 0
KOD1 142049Z 01007KT 13/00 A3036 RMK A01 T01340002  RH  040%=      5-min Rain = 0
KOD1 142050Z 01008KT 13/00 A3036 RMK A01 T01340000  RH  040%=      5-min Rain = 0
KOD1 142051Z 02008KT 13/00 A3036 RMK A01 T01340002  RH  040%=      5-min Rain = 0
KOD1 142052Z 02011KT 14/00 A3036 RMK A01 T01380002  RH  039%=      5-min Rain = 0
KOD1 142053Z 02012KT 14/00 A3036 RMK A01 T01380001  RH  039%=      5-min Rain = 0
KOD1 142054Z 02012KT 14/M00 A3036 RMK A01 T01361001  RH  039%=      5-min Rain = 0
KOD1 142055Z 04013KT 14/00 A3036 RMK A01 T01360001  RH  039%=      5-min Rain = 0
KOD1 142056Z 04013KT 14/00 A3036 RMK A01 T01370000  RH  039%=      5-min Rain = 0
KOD1 142057Z 04012KT 14/00 A3036 RMK A01 T01370000  RH  039%=      5-min Rain = 0
KOD1 142058Z 03010KT 14/M00 A3036 RMK A01 T01351001  RH  039%=      5-min Rain = 0
KOD1 142059Z 03009KT 13/00 A3036 RMK A01 T01340000  RH  040%=      5-min Rain = 0
KOD1 142100Z 02008KT 13/00 A3036 RMK A01 T01340000  RH  040%=      5-min Rain = 0
KOD1 142101Z 02012KT 13/00 A3036 RMK A01 T013400-0  RH  040%=      5-min Rain = 0
KOD1 142102Z 02015KT 13/00 A3036 RMK A01 T013300-0  RH  040%=      5-min Rain = 0
KOD1 142103Z 02015KT 13/00 A3036 RMK A01 T013300-0  RH  040%=      5-min Rain = 0
KOD1 142104Z 02013KT 13/00 A3036 RMK A01 T013200-0  RH  040%=      5-min Rain = 0
KOD1 142105Z 01015KT 13/00 A3036 RMK A01 T01330000  RH  040%=      5-min Rain = 0
KOD1 142106Z 01013KT 13/M00 A3036 RMK A01 T01311001  RH  040%=      5-min Rain = 0
KOD1 142107Z 00014KT 13/00 A3036 RMK A01 T013000-0  RH  041%=      5-min Rain = 0
KOD1 142108Z 36010KT 13/M00 A3036 RMK A01 T01301001  RH  041%=      5-min Rain = 0
KOD1 142109Z 01008KT 13/M00 A3036 RMK A01 T01301001  RH  041%=      5-min Rain = 0
KOD1 142110Z 01008KT 13/00 A3036 RMK A01 T012900-0  RH  041%=      5-min Rain = 0
KOD1 142111Z 01012KT 13/00 A3036 RMK A01 T01320001  RH  041%=      5-min Rain = 0
KOD1 142112Z 02010KT 13/00 A3036 RMK A01 T01320001  RH  040%=      5-min Rain = 0
KOD1 142113Z 03009KT 13/00 A3036 RMK A01 T01340000  RH  040%=      5-min Rain = 0
KOD1 142114Z 04010KT 13/00 A3036 RMK A01 T01340001  RH  040%=      5-min Rain = 0
KOD1 142115Z 03009KT 14/00 A3036 RMK A01 T01350001  RH  040%=      5-min Rain = 0
KOD1 142116Z 04009KT 13/00 A3036 RMK A01 T01340001  RH  040%=      5-min Rain = 0
KOD1 142117Z 03011KT 13/00 A3036 RMK A01 T01340001  RH  040%=      5-min Rain = 0
KOD1 142118Z 02008KT 13/00 A3036 RMK A01 T01330001  RH  040%=      5-min Rain = 0
KOD1 142119Z 01008KT 13/00 A3036 RMK A01 T01330001  RH  040%=      5-min Rain = 0
KOD1 142120Z 03009KT 13/00 A3036 RMK A01 T01320000  RH  041%=      5-min Rain = 0
KOD1 142121Z 04009G16KT 13/00 A3036 RMK A01 T01330001  RH  040%=      5-min Rain = 0
KOD1 142122Z 01015KT 13/00 A3036 RMK A01 T01330000  RH  040%=      5-min Rain = 0
KOD1 142123Z 01014KT 13/00 A3036 RMK A01 T013200-0  RH  040%=      5-min Rain = 0
KOD1 142124Z 02011KT 13/M00 A3036 RMK A01 T01311001  RH  040%=      5-min Rain = 0
KOD1 142125Z 02014KT 13/00 A3036 RMK A01 T01310000  RH  041%=      5-min Rain = 0
KOD1 142126Z 03014KT 13/00 A3036 RMK A01 T01320001  RH  041%=      5-min Rain = 0
KOD1 142127Z 02013KT 13/00 A3036 RMK A01 T01320000  RH  040%=      5-min Rain = 0
KOD1 142128Z 02010KT 13/00 A3036 RMK A01 T01310000  RH  041%=      5-min Rain = 0
KOD1 142129Z 02010KT 13/00 A3036 RMK A01 T013100-0  RH  041%=      5-min Rain = 0
KOD1 142130Z 03008KT 13/00 A3036 RMK A01 T01310001  RH  041%=      5-min Rain = 0
KOD1 142131Z 03007KT 13/00 A3036 RMK A01 T01320001  RH  041%=      5-min Rain = 0
KOD1 142132Z 00011G19KT 13/00 A3036 RMK A01 T01320001  RH  040%=      5-min Rain = 0
KOD1 142133Z 02014KT 13/00 A3036 RMK A01 T01330001  RH  040%=      5-min Rain = 0
KOD1 142134Z 01012KT 13/M00 A3036 RMK A01 T01321001  RH  040%=      5-min Rain = 0
KOD1 142135Z 01012KT 13/00 A3036 RMK A01 T013200-0  RH  040%=      5-min Rain = 0
KOD1 142136Z 02010KT 13/00 A3036 RMK A01 T01320000  RH  040%=      5-min Rain = 0
KOD1 142137Z 02012KT 13/00 A3036 RMK A01 T01330001  RH  040%=      5-min Rain = 0
KOD1 142138Z 02012KT 13/00 A3036 RMK A01 T01330001  RH  040%=      5-min Rain = 0
KOD1 142139Z 03012KT 13/00 A3036 RMK A01 T01330001  RH  040%=      5-min Rain = 0
KOD1 142140Z 02010KT 13/00 A3036 RMK A01 T01320000  RH  040%=      5-min Rain = 0
KOD1 142141Z 02011KT 13/00 A3036 RMK A01 T01320001  RH  041%=      5-min Rain = 0
KOD1 142142Z 01010KT 13/00 A3036 RMK A01 T01310001  RH  041%=      5-min Rain = 0
KOD1 142143Z 01009KT 13/00 A3036 RMK A01 T01310001  RH  041%=      5-min Rain = 0
KOD1 142144Z 02012KT 13/00 A3036 RMK A01 T01320002  RH  041%=      5-min Rain = 0
KOD1 142145Z 02011KT 13/00 A3036 RMK A01 T01310001  RH  041%=      5-min Rain = 0
KOD1 142146Z 01009KT 13/00 A3036 RMK A01 T01320001  RH  041%=      5-min Rain = 0
KOD1 142147Z 01010KT 13/00 A3036 RMK A01 T01330002  RH  041%=      5-min Rain = 0
KOD1 142148Z 01012KT 13/00 A3036 RMK A01 T01340001  RH  040%=      5-min Rain = 0
KOD1 142149Z 36012KT 13/00 A3036 RMK A01 T01330001  RH  040%=      5-min Rain = 0
KOD1 142150Z 00009KT 13/00 A3036 RMK A01 T01320001  RH  041%=      5-min Rain = 0
KOD1 142151Z 00010KT 13/00 A3036 RMK A01 T01310000  RH  041%=      5-min Rain = 0
KOD1 142152Z 01010KT 13/00 A3036 RMK A01 T01310000  RH  041%=      5-min Rain = 0
KOD1 142153Z 02011KT 13/00 A3036 RMK A01 T01310001  RH  041%=      5-min Rain = 0
KOD1 142154Z 01011KT 13/00 A3036 RMK A01 T01310001  RH  041%=      5-min Rain = 0
KOD1 142155Z 36012KT 13/00 A3036 RMK A01 T01310001  RH  041%=      5-min Rain = 0
KOD1 142156Z 36011KT 13/00 A3036 RMK A01 T01300001  RH  041%=      5-min Rain = 0
KOD1 142157Z 36010KT 13/00 A3036 RMK A01 T01300001  RH  041%=      5-min Rain = 0
KOD1 142158Z 01009KT 13/00 A3036 RMK A01 T01300001  RH  041%=      5-min Rain = 0
KOD1 142159Z 01007KT 13/00 A3036 RMK A01 T01290001  RH  041%=      5-min Rain = 0
KOD1 142200Z 01007KT 13/00 A3036 RMK A01 T01290001  RH  041%=      5-min Rain = 0
KOD1 142201Z 01005KT 13/00 A3036 RMK A01 T01290001  RH  041%=      5-min Rain = 0
KOD1 142202Z 02005KT 13/00 A3036 RMK A01 T01300002  RH  041%=      5-min Rain = 0
KOD1 142203Z 01006KT 13/00 A3036 RMK A01 T01310001  RH  041%=      5-min Rain = 0
KOD1 142204Z 01006KT 13/00 A3036 RMK A01 T01310002  RH  041%=      5-min Rain = 0
KOD1 142205Z 00007KT 13/00 A3036 RMK A01 T01310002  RH  041%=      5-min Rain = 0
KOD1 142206Z 02007KT 13/00 A3036 RMK A01 T01310002  RH  041%=      5-min Rain = 0
KOD1 142207Z 03008KT 13/00 A3036 RMK A01 T01310001  RH  041%=      5-min Rain = 0
KOD1 142208Z 02009KT 13/00 A3036 RMK A01 T01310001  RH  041%=      5-min Rain = 0
KOD1 142209Z 01011KT 13/00 A3036 RMK A01 T01310001  RH  041%=      5-min Rain = 0
KOD1 142210Z 02012KT 13/00 A3036 RMK A01 T01300001  RH  041%=      5-min Rain = 0
KOD1 142211Z 02010KT 13/00 A3036 RMK A01 T01300001  RH  041%=      5-min Rain = 0
KOD1 142212Z 02009KT 13/00 A3036 RMK A01 T01300002  RH  041%=      5-min Rain = 0
KOD1 142213Z 01010KT 13/00 A3036 RMK A01 T01310002  RH  041%=      5-min Rain = 0
KOD1 142214Z 01009KT 13/00 A3036 RMK A01 T01300001  RH  041%=      5-min Rain = 0
KOD1 142215Z 01009KT 13/00 A3036 RMK A01 T01300001  RH  041%=      5-min Rain = 0
KOD1 142216Z 01007KT 13/00 A3036 RMK A01 T01290001  RH  041%=      5-min Rain = 0
KOD1 142217Z 00008KT 13/00 A3036 RMK A01 T01290002  RH  042%=      5-min Rain = 0
KOD1 142218Z 36009KT 13/00 A3036 RMK A01 T01290001  RH  041%=      5-min Rain = 0
KOD1 142219Z 00008KT 13/00 A3036 RMK A01 T01290001  RH  042%=      5-min Rain = 0
KOD1 142220Z 02007KT 13/00 A3036 RMK A01 T01290002  RH  042%=      5-min Rain = 0
KOD1 142221Z 03008KT 13/00 A3036 RMK A01 T01300002  RH  041%=      5-min Rain = 0
KOD1 142222Z 03009KT 13/00 A3036 RMK A01 T01290001  RH  041%=      5-min Rain = 0
KOD1 142223Z 03007KT 13/00 A3036 RMK A01 T01290001  RH  041%=      5-min Rain = 0
KOD1 142224Z 03008KT 13/00 A3036 RMK A01 T01290002  RH  042%=      5-min Rain = 0
KOD1 142225Z 03009KT 13/00 A3036 RMK A01 T01290002  RH  042%=      5-min Rain = 0
KOD1 142226Z 02008KT 13/00 A3036 RMK A01 T01290001  RH  042%=      5-min Rain = 0
KOD1 142227Z 01009KT 13/00 A3036 RMK A01 T01290002  RH  042%=      5-min Rain = 0
KOD1 142228Z 01008KT 13/00 A3036 RMK A01 T01290001  RH  041%=      5-min Rain = 0
KOD1 142229Z 01006KT 13/00 A3036 RMK A01 T01280001  RH  042%=      5-min Rain = 0
KOD1 142230Z 00007KT 13/00 A3036 RMK A01 T01290002  RH  042%=      5-min Rain = 0
KOD1 142231Z 03007KT 13/00 A3036 RMK A01 T01300002  RH  042%=      5-min Rain = 0
KOD1 142232Z 02010KT 13/00 A3036 RMK A01 T01290002  RH  041%=      5-min Rain = 0
KOD1 142233Z 01010KT 13/00 A3036 RMK A01 T01280001  RH  042%=      5-min Rain = 0
KOD1 142234Z 01010KT 13/00 A3036 RMK A01 T01270001  RH  042%=      5-min Rain = 0
KOD1 142235Z 02010KT 13/00 A3036 RMK A01 T01270001  RH  042%=      5-min Rain = 0
KOD1 142236Z 02010KT 13/00 A3036 RMK A01 T01260001  RH  042%=      5-min Rain = 0
KOD1 142237Z 02008KT 13/00 A3036 RMK A01 T01260001  RH  042%=      5-min Rain = 0
KOD1 142238Z 03009KT 13/00 A3036 RMK A01 T01260001  RH  042%=      5-min Rain = 0
KOD1 142239Z 03010KT 13/00 A3036 RMK A01 T01260001  RH  042%=      5-min Rain = 0
KOD1 142240Z 03009KT 13/00 A3036 RMK A01 T01260001  RH  042%=      5-min Rain = 0
KOD1 142241Z 02008KT 13/00 A3036 RMK A01 T01260002  RH  043%=      5-min Rain = 0
KOD1 142242Z 01009KT 13/00 A3036 RMK A01 T01260002  RH  043%=      5-min Rain = 0
KOD1 142243Z 01009KT 13/00 A3036 RMK A01 T01260002  RH  043%=      5-min Rain = 0
KOD1 142244Z 00009KT 13/00 A3036 RMK A01 T01250002  RH  043%=      5-min Rain = 0
KOD1 142245Z 01007KT 13/00 A3036 RMK A01 T01250002  RH  043%=      5-min Rain = 0
KOD1 142246Z 01007KT 13/00 A3036 RMK A01 T01250002  RH  043%=      5-min Rain = 0
KOD1 142247Z 02009KT 13/00 A3036 RMK A01 T01250002  RH  043%=      5-min Rain = 0
KOD1 142248Z 02009KT 12/00 A3036 RMK A01 T01240001  RH  043%=      5-min Rain = 0
KOD1 142249Z 02008KT 12/00 A3036 RMK A01 T01240001  RH  043%=      5-min Rain = 0
KOD1 142250Z 02009KT 12/00 A3036 RMK A01 T01240001  RH  043%=      5-min Rain = 0
KOD1 142251Z 02009KT 12/00 A3036 RMK A01 T01230001  RH  043%=      5-min Rain = 0
KOD1 142252Z 03007KT 12/00 A3036 RMK A01 T01230002  RH  043%=      5-min Rain = 0
KOD1 142253Z 03007KT 12/00 A3036 RMK A01 T01230002  RH  043%=      5-min Rain = 0
KOD1 142254Z 03007KT 12/00 A3036 RMK A01 T01220002  RH  044%=      5-min Rain = 0
KOD1 142255Z 03006KT 12/00 A3036 RMK A01 T01220002  RH  044%=      5-min Rain = 0
KOD1 142256Z 02007KT 12/00 A3036 RMK A01 T01220002  RH  044%=      5-min Rain = 0
KOD1 142257Z 02006KT 12/00 A3036 RMK A01 T01220002  RH  044%=      5-min Rain = 0
KOD1 142258Z 02006KT 12/00 A3036 RMK A01 T01210002  RH  044%=      5-min Rain = 0
KOD1 142259Z 02006KT 12/00 A3036 RMK A01 T01210002  RH  044%=      5-min Rain = 0
KOD1 142300Z 02005KT 12/00 A3036 RMK A01 T01200003  RH  044%=      5-min Rain = 0
KOD1 142301Z 02006KT 12/00 A3036 RMK A01 T01190002  RH  045%=      5-min Rain = 0
KOD1 142302Z 02005KT 12/00 A3036 RMK A01 T01190002  RH  045%=      5-min Rain = 0
KOD1 142303Z 03007KT 12/00 A3036 RMK A01 T01180002  RH  045%=      5-min Rain = 0
KOD1 142304Z 03007KT 12/00 A3036 RMK A01 T01180003  RH  045%=      5-min Rain = 0
KOD1 142305Z 03008KT 12/00 A3036 RMK A01 T01170002  RH  045%=      5-min Rain = 0
KOD1 142306Z 03007KT 12/00 A3036 RMK A01 T01170002  RH  045%=      5-min Rain = 0
KOD1 142307Z 03006KT 12/00 A3036 RMK A01 T01160002  RH  045%=      5-min Rain = 0
KOD1 142308Z 03006KT 12/00 A3036 RMK A01 T01150002  RH  046%=      5-min Rain = 0
KOD1 142309Z 03006KT 12/00 A3036 RMK A01 T01150003  RH  046%=      5-min Rain = 0
KOD1 142310Z 03006KT 11/00 A3036 RMK A01 T01130002  RH  046%=      5-min Rain = 0
KOD1 142311Z 03006KT 11/00 A3036 RMK A01 T01120002  RH  047%=      5-min Rain = 0
KOD1 142312Z 03006KT 11/00 A3036 RMK A01 T01110002  RH  047%=      5-min Rain = 0
KOD1 142313Z 03006KT 11/00 A3036 RMK A01 T01110002  RH  047%=      5-min Rain = 0
KOD1 142314Z 03006KT 11/00 A3037 RMK A01 T01100002  RH  047%=      5-min Rain = 0
KOD1 142315Z 02005KT 11/00 A3037 RMK A01 T01090002  RH  048%=      5-min Rain = 0
KOD1 142316Z 02006KT 11/00 A3037 RMK A01 T01080002  RH  048%=      5-min Rain = 0
KOD1 142317Z 03006KT 11/00 A3037 RMK A01 T01080002  RH  048%=      5-min Rain = 0
KOD1 142318Z 02006KT 11/00 A3037 RMK A01 T01090001  RH  048%=      5-min Rain = 0
KOD1 142319Z 03006KT 11/00 A3037 RMK A01 T01080002  RH  048%=      5-min Rain = 0
KOD1 142320Z 02006KT 11/00 A3036 RMK A01 T01080001  RH  048%=      5-min Rain = 0
KOD1 142321Z 02006KT 11/00 A3036 RMK A01 T01070001  RH  048%=      5-min Rain = 0
KOD1 142322Z 02006KT 11/00 A3037 RMK A01 T01050001  RH  049%=      5-min Rain = 0
KOD1 142323Z 02006KT 10/00 A3037 RMK A01 T01030001  RH  049%=      5-min Rain = 0
KOD1 142324Z 02006KT 10/00 A3037 RMK A01 T01020000  RH  049%=      5-min Rain = 0
KOD1 142325Z 02006KT 10/00 A3037 RMK A01 T01010000  RH  050%=      5-min Rain = 0
KOD1 142326Z 02006KT 10/00 A3037 RMK A01 T01000000  RH  050%=      5-min Rain = 0
KOD1 142327Z 03006KT 10/00 A3037 RMK A01 T00990000  RH  050%=      5-min Rain = 0
KOD1 142328Z 03006KT 10/00 A3037 RMK A01 T00980000  RH  051%=      5-min Rain = 0
KOD1 142329Z 03006KT 10/00 A3037 RMK A01 T009700-0  RH  051%=      5-min Rain = 0
KOD1 142330Z 03005KT 10/M00 A3037 RMK A01 T00951001  RH  051%=      5-min Rain = 0
KOD1 142331Z 02005KT 09/M00 A3037 RMK A01 T00941001  RH  052%=      5-min Rain = 0
KOD1 142332Z 02005KT 09/M00 A3037 RMK A01 T00921001  RH  052%=      5-min Rain = 0
KOD1 142333Z 02005KT 09/M00 A3037 RMK A01 T00911001  RH  053%=      5-min Rain = 0
KOD1 142334Z 02005KT 09/M00 A3037 RMK A01 T00901001  RH  053%=      5-min Rain = 0
KOD1 142335Z 02005KT 09/M00 A3037 RMK A01 T00891001  RH  053%=      5-min Rain = 0
KOD1 142336Z 02005KT 09/M00 A3037 RMK A01 T00881002  RH  053%=      5-min Rain = 0
KOD1 142337Z 02004KT 09/M00 A3037 RMK A01 T00861002  RH  054%=      5-min Rain = 0
KOD1 142338Z 02004KT 09/M00 A3037 RMK A01 T00861002  RH  054%=      5-min Rain = 0
KOD1 142339Z 02004KT 09/M00 A3037 RMK A01 T00851002  RH  054%=      5-min Rain = 0
KOD1 142340Z 02004KT 08/M00 A3037 RMK A01 T00841002  RH  055%=      5-min Rain = 0
KOD1 142341Z 02004KT 08/M00 A3037 RMK A01 T00841002  RH  055%=      5-min Rain = 0
KOD1 142342Z 02004KT 08/M00 A3037 RMK A01 T00831002  RH  055%=      5-min Rain = 0
KOD1 142343Z 03004KT 08/M00 A3037 RMK A01 T00831002  RH  055%=      5-min Rain = 0
KOD1 142344Z 03004KT 08/M00 A3037 RMK A01 T00821002  RH  055%=      5-min Rain = 0
KOD1 142345Z 03004KT 08/M00 A3037 RMK A01 T00821002  RH  056%=      5-min Rain = 0
KOD1 142346Z 03004KT 08/M00 A3037 RMK A01 T00811002  RH  056%=      5-min Rain = 0
KOD1 142347Z 03004KT 08/M00 A3037 RMK A01 T00811002  RH  056%=      5-min Rain = 0
KOD1 142348Z 03004KT 08/M00 A3037 RMK A01 T00801002  RH  056%=      5-min Rain = 0
KOD1 142349Z 03004KT 08/M00 A3037 RMK A01 T00791003  RH  056%=      5-min Rain = 0
KOD1 142350Z 03004KT 08/M00 A3037 RMK A01 T00781003  RH  057%=      5-min Rain = 0
KOD1 142351Z 03004KT 08/M00 A3037 RMK A01 T00761003  RH  057%=      5-min Rain = 0
KOD1 142352Z 03004KT 07/M00 A3037 RMK A01 T00741003  RH  058%=      5-min Rain = 0
KOD1 142353Z 03005KT 07/M00 A3037 RMK A01 T00741002  RH  058%=      5-min Rain = 0
KOD1 142354Z 03005KT 08/M00 A3037 RMK A01 T00751002  RH  058%=      5-min Rain = 0
KOD1 142355Z 04005KT 08/M00 A3037 RMK A01 T00751002  RH  058%=      5-min Rain = 0
KOD1 142356Z 04005KT 08/M00 A3038 RMK A01 T00751002  RH  058%=      5-min Rain = 0
KOD1 142357Z 03005KT 07/M00 A3038 RMK A01 T00741002  RH  058%=      5-min Rain = 0
KOD1 142358Z 03005KT 07/M00 A3038 RMK A01 T00731002  RH  059%=      5-min Rain = 0
KOD1 142359Z 02005KT 07/M00 A3038 RMK A01 T00721003  RH  059%=      5-min Rain = 0
KOD1 150000Z 02005KT 07/M00 A3038 RMK A01 T00721003  RH  059%=      5-min Rain = 0
KOD1 150001Z 02005KT 07/M00 A3038 RMK A01 T00711003  RH  059%=      5-min Rain = 0
KOD1 150002Z 02005KT 07/M00 A3038 RMK A01 T00701003  RH  060%=      5-min Rain = 0
KOD1 150003Z 02005KT 07/M00 A3038 RMK A01 T00711002  RH  060%=      5-min Rain = 0
KOD1 150004Z 02005KT 07/M00 A3038 RMK A01 T00701002  RH  060%=      5-min Rain = 0
KOD1 150005Z 02006KT 07/M00 A3038 RMK A01 T00711002  RH  060%=      5-min Rain = 0
KOD1 150006Z 02006KT 07/M00 A3038 RMK A01 T00711001  RH  060%=      5-min Rain = 0
KOD1 150007Z 02005KT 07/M00 A3038 RMK A01 T00711002  RH  060%=      5-min Rain = 0
KOD1 150008Z 02005KT 07/M00 A3038 RMK A01 T00701002  RH  060%=      5-min Rain = 0
KOD1 150009Z 02005KT 07/M00 A3038 RMK A01 T00701002  RH  060%=      5-min Rain = 0
KOD1 150010Z 02005KT 07/M00 A3038 RMK A01 T00701001  RH  060%=      5-min Rain = 0
KOD1 150011Z 02005KT 07/M00 A3038 RMK A01 T00701001  RH  061%=      5-min Rain = 0
KOD1 150012Z 02005KT 07/00 A3038 RMK A01 T007000-0  RH  061%=      5-min Rain = 0
KOD1 150013Z 03005KT 07/00 A3038 RMK A01 T007100-0  RH  061%=      5-min Rain = 0
KOD1 150014Z 03005KT 07/00 A3038 RMK A01 T00720001  RH  060%=      5-min Rain = 0
KOD1 150015Z 03005KT 07/00 A3038 RMK A01 T00730000  RH  060%=      5-min Rain = 0
KOD1 150016Z 03005KT 07/00 A3038 RMK A01 T00740000  RH  059%=      5-min Rain = 0
KOD1 150017Z 03004KT 08/00 A3038 RMK A01 T007500-0  RH  059%=      5-min Rain = 0
KOD1 150018Z 03004KT 08/M00 A3038 RMK A01 T00751001  RH  059%=      5-min Rain = 0
KOD1 150019Z 03004KT 07/M00 A3038 RMK A01 T00741001  RH  059%=      5-min Rain = 0
KOD1 150020Z 03005KT 07/M00 A3038 RMK A01 T00741001  RH  059%=      5-min Rain = 0
KOD1 150021Z 03004KT 08/M00 A3038 RMK A01 T00751001  RH  059%=      5-min Rain = 0
KOD1 150022Z 03004KT 08/00 A3038 RMK A01 T007600-0  RH  059%=      5-min Rain = 0
KOD1 150023Z 03004KT 08/00 A3038 RMK A01 T00760000  RH  058%=      5-min Rain = 0
KOD1 150024Z 03004KT 08/00 A3038 RMK A01 T00770000  RH  058%=      5-min Rain = 0
KOD1 150025Z 03004KT 08/00 A3038 RMK A01 T00770000  RH  058%=      5-min Rain = 0
KOD1 150026Z 03004KT 08/00 A3038 RMK A01 T00770001  RH  058%=      5-min Rain = 0
KOD1 150027Z 03004KT 08/00 A3038 RMK A01 T00780001  RH  058%=      5-min Rain = 0
KOD1 150028Z 04004KT 08/00 A3038 RMK A01 T00780001  RH  058%=      5-min Rain = 0
KOD1 150029Z 04004KT 08/00 A3038 RMK A01 T00770000  RH  058%=      5-min Rain = 0
KOD1 150030Z 04004KT 08/00 A3038 RMK A01 T00770000  RH  058%=      5-min Rain = 0
KOD1 150031Z 04005KT 08/00 A3038 RMK A01 T007600-0  RH  058%=      5-min Rain = 0
KOD1 150032Z 04005KT 08/M00 A3038 RMK A01 T00751001  RH  059%=      5-min Rain = 0
KOD1 150033Z 04005KT 07/M00 A3038 RMK A01 T00741001  RH  059%=      5-min Rain = 0
KOD1 150034Z 04005KT 07/M00 A3038 RMK A01 T00721001  RH  059%=      5-min Rain = 0
KOD1 150035Z 04006KT 07/M00 A3038 RMK A01 T00711001  RH  060%=      5-min Rain = 0
KOD1 150036Z 03006KT 07/M00 A3038 RMK A01 T00701001  RH  061%=      5-min Rain = 0
KOD1 150037Z 03006KT 07/M00 A3038 RMK A01 T00691001  RH  061%=      5-min Rain = 0
KOD1 150038Z 03006KT 07/M00 A3038 RMK A01 T00671002  RH  061%=      5-min Rain = 0
KOD1 150039Z 03006KT 07/M00 A3038 RMK A01 T00661002  RH  062%=      5-min Rain = 0
KOD1 150040Z 04006KT 06/M00 A3038 RMK A01 T00641002  RH  062%=      5-min Rain = 0
KOD1 150041Z 04006KT 06/M00 A3038 RMK A01 T00631003  RH  063%=      5-min Rain = 0
KOD1 150042Z 04005KT 06/M00 A3038 RMK A01 T00621003  RH  063%=      5-min Rain = 0
KOD1 150043Z 04005KT 06/M00 A3038 RMK A01 T00611003  RH  064%=      5-min Rain = 0
KOD1 150044Z 04005KT 06/M00 A3038 RMK A01 T00591004  RH  064%=      5-min Rain = 0
KOD1 150045Z 04005KT 06/M00 A3038 RMK A01 T00591004  RH  064%=      5-min Rain = 0
KOD1 150046Z 04005KT 06/M00 A3038 RMK A01 T00581003  RH  064%=      5-min Rain = 0
KOD1 150047Z 04005KT 06/M00 A3038 RMK A01 T00581003  RH  065%=      5-min Rain = 0
KOD1 150048Z 04005KT 06/M00 A3038 RMK A01 T00581003  RH  065%=      5-min Rain = 0
KOD1 150049Z 04005KT 06/M00 A3038 RMK A01 T00581003  RH  065%=      5-min Rain = 0
KOD1 150050Z 04005KT 06/M00 A3038 RMK A01 T00581003  RH  065%=      5-min Rain = 0
KOD1 150051Z 04004KT 06/M00 A3039 RMK A01 T00581003  RH  065%=      5-min Rain = 0
KOD1 150052Z 04005KT 06/M00 A3039 RMK A01 T00581002  RH  065%=      5-min Rain = 0
KOD1 150053Z 04005KT 06/M00 A3039 RMK A01 T00591002  RH  065%=      5-min Rain = 0
KOD1 150054Z 04005KT 06/M00 A3039 RMK A01 T00591002  RH  065%=      5-min Rain = 0
KOD1 150055Z 04005KT 06/M00 A3039 RMK A01 T00601002  RH  065%=      5-min Rain = 0
KOD1 150056Z 04005KT 06/M00 A3039 RMK A01 T00601002  RH  064%=      5-min Rain = 0
KOD1 150057Z 04005KT 06/M00 A3039 RMK A01 T00601002  RH  064%=      5-min Rain = 0
KOD1 150058Z 04005KT 06/M00 A3039 RMK A01 T00591003  RH  064%=      5-min Rain = 0
KOD1 150059Z 04005KT 06/M00 A3039 RMK A01 T00591003  RH  065%=      5-min Rain = 0
KOD1 150100Z 04005KT 06/M00 A3039 RMK A01 T00581003  RH  065%=      5-min Rain = 0
KOD1 150101Z 04005KT 06/M00 A3039 RMK A01 T00581003  RH  065%=      5-min Rain = 0
KOD1 150102Z 04005KT 06/M00 A3039 RMK A01 T00571003  RH  065%=      5-min Rain = 0
KOD1 150103Z 04005KT 06/M00 A3039 RMK A01 T00571004  RH  065%=      5-min Rain = 0
KOD1 150104Z 04005KT 06/M00 A3039 RMK A01 T00561004  RH  065%=      5-min Rain = 0
KOD1 150105Z 04005KT 06/M00 A3039 RMK A01 T00551004  RH  066%=      5-min Rain = 0
KOD1 150106Z 04005KT 06/M00 A3039 RMK A01 T00551004  RH  066%=      5-min Rain = 0
KOD1 150107Z 04005KT 05/M00 A3039 RMK A01 T00541004  RH  066%=      5-min Rain = 0
KOD1 150108Z 04005KT 05/M01 A3039 RMK A01 T00531005  RH  066%=      5-min Rain = 0
KOD1 150109Z 04005KT 05/M01 A3039 RMK A01 T00531005  RH  066%=      5-min Rain = 0
KOD1 150110Z 04005KT 05/M01 A3039 RMK A01 T00531005  RH  066%=      5-min Rain = 0
KOD1 150111Z 04005KT 05/M01 A3039 RMK A01 T00531005  RH  066%=      5-min Rain = 0
KOD1 150112Z 04005KT 05/M00 A3039 RMK A01 T00541004  RH  066%=      5-min Rain = 0
KOD1 150113Z 04005KT 05/M00 A3039 RMK A01 T00541004  RH  066%=      5-min Rain = 0
KOD1 150114Z 04005KT 05/M00 A3039 RMK A01 T00541004  RH  066%=      5-min Rain = 0
KOD1 150115Z 04005KT 06/M01 A3039 RMK A01 T00551005  RH  066%=      5-min Rain = 0
KOD1 150116Z 04005KT 06/M00 A304 RMK A01 T00551004  RH  066%=      5-min Rain = 0
KOD1 150117Z 04005KT 06/M00 A304 RMK A01 T00551004  RH  066%=      5-min Rain = 0
KOD1 150118Z 04005KT 06/M00 A304 RMK A01 T00551004  RH  066%=      5-min Rain = 0
KOD1 150119Z 04005KT 06/M01 A304 RMK A01 T00551005  RH  066%=      5-min Rain = 0
KOD1 150120Z 04004KT 06/M00 A304 RMK A01 T00551004  RH  065%=      5-min Rain = 0
KOD1 150121Z 04004KT 06/M00 A304 RMK A01 T00551004  RH  065%=      5-min Rain = 0
KOD1 150122Z 04004KT 06/M00 A304 RMK A01 T00561004  RH  065%=      5-min Rain = 0
KOD1 150123Z 04004KT 06/M00 A304 RMK A01 T00561004  RH  065%=      5-min Rain = 0
KOD1 150124Z 04004KT 06/M00 A304 RMK A01 T00571004  RH  065%=      5-min Rain = 0
KOD1 150125Z 05004KT 06/M00 A304 RMK A01 T00571004  RH  065%=      5-min Rain = 0
KOD1 150126Z 05004KT 06/M00 A304 RMK A01 T00581004  RH  065%=      5-min Rain = 0
KOD1 150127Z 04004KT 06/M00 A304 RMK A01 T00581004  RH  064%=      5-min Rain = 0
KOD1 150128Z 04004KT 06/M00 A304 RMK A01 T00581004  RH  064%=      5-min Rain = 0
KOD1 150129Z 04004KT 06/M00 A304 RMK A01 T00581004  RH  064%=      5-min Rain = 0
KOD1 150130Z 04004KT 06/M01 A304 RMK A01 T00571005  RH  064%=      5-min Rain = 0
KOD1 150131Z 04004KT 06/M01 A304 RMK A01 T00561006  RH  064%=      5-min Rain = 0
KOD1 150132Z 04004KT 06/M01 A304 RMK A01 T00551006  RH  065%=      5-min Rain = 0
KOD1 150133Z 04004KT 06/M01 A304 RMK A01 T00551005  RH  065%=      5-min Rain = 0
KOD1 150134Z 04004KT 06/M01 A304 RMK A01 T00551005  RH  065%=      5-min Rain = 0
KOD1 150135Z 04003KT 05/M01 A304 RMK A01 T00541005  RH  065%=      5-min Rain = 0
KOD1 150136Z 05003KT 06/M01 A304 RMK A01 T00551005  RH  066%=      5-min Rain = 0
KOD1 150137Z 05003KT 06/M01 A3041 RMK A01 T00551005  RH  065%=      5-min Rain = 0
KOD1 150138Z 07001KT 05/M01 A3041 RMK A01 T00531008  RH  065%=      5-min Rain = 0
KOD1 150139Z 18001KT 05/M01 A3041 RMK A01 T00491009  RH  066%=      5-min Rain = 0
KOD1 150140Z 19002KT 05/M01 A3041 RMK A01 T00461008  RH  068%=      5-min Rain = 0
KOD1 150141Z 19002KT 04/M01 A3041 RMK A01 T00441008  RH  069%=      5-min Rain = 0
KOD1 150142Z 21002KT 04/M01 A3041 RMK A01 T00441008  RH  069%=      5-min Rain = 0
KOD1 150143Z 20002KT 04/M01 A3041 RMK A01 T00431009  RH  069%=      5-min Rain = 0
KOD1 150144Z 19002KT 04/M01 A3041 RMK A01 T00431009  RH  069%=      5-min Rain = 0
KOD1 150145Z 19002KT 04/M01 A3041 RMK A01 T00431009  RH  069%=      5-min Rain = 0
KOD1 150146Z 19002KT 04/M01 A3041 RMK A01 T00431009  RH  069%=      5-min Rain = 0
KOD1 150147Z 19001KT 04/M01 A3041 RMK A01 T00431009  RH  069%=      5-min Rain = 0
KOD1 150148Z 20001KT 04/M01 A3041 RMK A01 T00431009  RH  069%=      5-min Rain = 0
KOD1 150149Z 20001KT 04/M01 A3041 RMK A01 T00431009  RH  069%=      5-min Rain = 0
KOD1 150150Z 20000KT 04/M01 A3041 RMK A01 T00431009  RH  069%=      5-min Rain = 0
KOD1 150151Z 20001KT 04/M01 A3041 RMK A01 T00431009  RH  069%=      5-min Rain = 0
KOD1 150152Z 20000KT 04/M01 A3041 RMK A01 T00431010  RH  068%=      5-min Rain = 0
KOD1 150153Z 00000KT 04/M01 A3041 RMK A01 T00431010  RH  069%=      5-min Rain = 0
KOD1 150154Z 00000KT 04/M01 A3041 RMK A01 T00431010  RH  068%=      5-min Rain = 0
KOD1 150155Z 00000KT 04/M01 A3041 RMK A01 T00421011  RH  068%=      5-min Rain = 0
KOD1 150156Z 00000KT 04/M01 A3041 RMK A01 T00421011  RH  068%=      5-min Rain = 0
KOD1 150157Z 12000KT 04/M01 A3041 RMK A01 T00411011  RH  069%=      5-min Rain = 0
KOD1 150158Z 09001KT 04/M01 A3041 RMK A01 T00411010  RH  069%=      5-min Rain = 0
KOD1 150159Z 09002KT 04/M01 A3041 RMK A01 T00411010  RH  069%=      5-min Rain = 0
KOD1 150200Z 08002KT 04/M01 A3041 RMK A01 T00411009  RH  070%=      5-min Rain = 0
KOD1 150201Z 08002KT 04/M01 A3041 RMK A01 T00421007  RH  070%=      5-min Rain = 0
KOD1 150202Z 07002KT 04/M01 A3041 RMK A01 T00431006  RH  071%=      5-min Rain = 0
KOD1 150203Z 07002KT 04/M00 A3041 RMK A01 T00441004  RH  071%=      5-min Rain = 0
KOD1 150204Z 06002KT 05/M00 A3041 RMK A01 T00461003  RH  071%=      5-min Rain = 0
KOD1 150205Z 06002KT 05/M00 A3041 RMK A01 T00471002  RH  070%=      5-min Rain = 0
KOD1 150206Z 06002KT 05/M00 A3041 RMK A01 T00491002  RH  069%=      5-min Rain = 0
KOD1 150207Z 06002KT 05/M00 A3041 RMK A01 T00511002  RH  068%=      5-min Rain = 0
KOD1 150208Z 05002KT 05/M00 A3041 RMK A01 T00521003  RH  068%=      5-min Rain = 0
KOD1 150209Z 05002KT 05/M00 A3041 RMK A01 T00541003  RH  067%=      5-min Rain = 0
KOD1 150210Z 04002KT 06/M00 A3041 RMK A01 T00561002  RH  066%=      5-min Rain = 0
KOD1 150211Z 04002KT 06/M00 A3041 RMK A01 T00581002  RH  065%=      5-min Rain = 0
KOD1 150212Z 04002KT 06/M00 A3041 RMK A01 T00601003  RH  064%=      5-min Rain = 0
KOD1 150213Z 03001KT 06/M00 A3041 RMK A01 T00601003  RH  064%=      5-min Rain = 0
KOD1 150214Z 03001KT 06/M01 A3041 RMK A01 T00591005  RH  064%=      5-min Rain = 0
KOD1 150215Z 03000KT 06/M01 A3041 RMK A01 T00571005  RH  064%=      5-min Rain = 0
KOD1 150216Z 26001KT 06/M01 A3041 RMK A01 T00561006  RH  065%=      5-min Rain = 0
KOD1 150217Z 25003KT 05/M01 A3041 RMK A01 T00511010  RH  064%=      5-min Rain = 0
KOD1 150218Z 25003KT 04/M02 A3041 RMK A01 T00431015  RH  066%=      5-min Rain = 0
KOD1 150219Z 25003KT 04/M01 A3041 RMK A01 T00371014  RH  069%=      5-min Rain = 0
KOD1 150220Z 25003KT 04/M01 A3041 RMK A01 T00351013  RH  071%=      5-min Rain = 0
KOD1 150221Z 25003KT 03/M01 A3041 RMK A01 T00321014  RH  072%=      5-min Rain = 0
KOD1 150222Z 25002KT 03/M01 A3041 RMK A01 T00311013  RH  073%=      5-min Rain = 0
KOD1 150223Z 25002KT 03/M01 A3041 RMK A01 T00311012  RH  073%=      5-min Rain = 0
KOD1 150224Z 25002KT 03/M01 A3041 RMK A01 T00301012  RH  074%=      5-min Rain = 0
KOD1 150225Z 25001KT 03/M01 A3041 RMK A01 T00291012  RH  074%=      5-min Rain = 0
KOD1 150226Z 25001KT 03/M01 A3041 RMK A01 T00291011  RH  075%=      5-min Rain = 0
KOD1 150227Z 25001KT 03/M01 A3042 RMK A01 T00291011  RH  075%=      5-min Rain = 0
KOD1 150228Z 25001KT 03/M01 A3042 RMK A01 T00301011  RH  075%=      5-min Rain = 0
KOD1 150229Z 26001KT 03/M01 A3042 RMK A01 T00301011  RH  075%=      5-min Rain = 0
KOD1 150230Z 26001KT 03/M01 A3042 RMK A01 T00301010  RH  075%=      5-min Rain = 0
KOD1 150231Z 26000KT 03/M01 A3042 RMK A01 T00291010  RH  075%=      5-min Rain = 0
KOD1 150232Z 26000KT 03/M01 A3042 RMK A01 T00291010  RH  075%=      5-min Rain = 0
KOD1 150233Z 26000KT 03/M01 A3042 RMK A01 T00291010  RH  075%=      5-min Rain = 0
KOD1 150234Z 00000KT 03/M01 A3042 RMK A01 T00301009  RH  075%=      5-min Rain = 0
KOD1 150235Z 00000KT 03/M01 A3042 RMK A01 T00301009  RH  075%=      5-min Rain = 0
KOD1 150236Z 00000KT 03/M01 A3042 RMK A01 T00301009  RH  075%=      5-min Rain = 0
KOD1 150237Z 00000KT 03/M01 A3042 RMK A01 T00311009  RH  075%=      5-min Rain = 0
KOD1 150238Z 00000KT 03/M01 A3042 RMK A01 T00311009  RH  075%=      5-min Rain = 0
KOD1 150239Z 00000KT 03/M01 A3042 RMK A01 T00311009  RH  075%=      5-min Rain = 0
KOD1 150240Z 00000KT 03/M01 A3042 RMK A01 T00311009  RH  075%=      5-min Rain = 0
KOD1 150241Z 00000KT 03/M01 A3042 RMK A01 T00321008  RH  075%=      5-min Rain = 0
KOD1 150242Z 00000KT 03/M01 A3042 RMK A01 T00321009  RH  075%=      5-min Rain = 0
KOD1 150243Z 00000KT 03/M01 A3042 RMK A01 T00321008  RH  075%=      5-min Rain = 0
KOD1 150244Z 23000KT 03/M01 A3042 RMK A01 T00321008  RH  075%=      5-min Rain = 0
KOD1 150245Z 22001KT 03/M01 A3042 RMK A01 T00331008  RH  074%=      5-min Rain = 0
KOD1 150246Z 22001KT 03/M01 A3042 RMK A01 T00331009  RH  074%=      5-min Rain = 0
KOD1 150247Z 22001KT 03/M01 A3042 RMK A01 T00331009  RH  074%=      5-min Rain = 0
KOD1 150248Z 22002KT 03/M01 A3042 RMK A01 T00331009  RH  074%=      5-min Rain = 0
KOD1 150249Z 22002KT 03/M01 A3042 RMK A01 T00331010  RH  073%=      5-min Rain = 0
KOD1 150250Z 22002KT 03/M01 A3042 RMK A01 T00341009  RH  073%=      5-min Rain = 0
KOD1 150251Z 22002KT 03/M01 A3042 RMK A01 T00341009  RH  073%=      5-min Rain = 0
KOD1 150252Z 22003KT 04/M01 A3042 RMK A01 T00351009  RH  073%=      5-min Rain = 0
KOD1 150253Z 22002KT 04/M01 A3042 RMK A01 T00351009  RH  073%=      5-min Rain = 0
KOD1 150254Z 22002KT 04/M01 A3042 RMK A01 T00351009  RH  073%=      5-min Rain = 0
KOD1 150255Z 22001KT 04/M01 A3042 RMK A01 T00351009  RH  073%=      5-min Rain = 0
KOD1 150256Z 22001KT 04/M01 A3042 RMK A01 T00351009  RH  073%=      5-min Rain = 0
KOD1 150257Z 23001KT 04/M01 A3042 RMK A01 T00351009  RH  073%=      5-min Rain = 0
KOD1 150258Z 23001KT 04/M01 A3042 RMK A01 T00351009  RH  073%=      5-min Rain = 0
KOD1 150259Z 24001KT 03/M01 A3042 RMK A01 T00341010  RH  073%=      5-min Rain = 0
KOD1 150300Z 25001KT 03/M01 A3042 RMK A01 T00331010  RH  073%=      5-min Rain = 0
KOD1 150301Z 25002KT 03/M01 A3042 RMK A01 T00331010  RH  073%=      5-min Rain = 0
KOD1 150302Z 25002KT 03/M01 A3042 RMK A01 T00321010  RH  074%=      5-min Rain = 0
KOD1 150303Z 25002KT 03/M01 A3042 RMK A01 T00321009  RH  074%=      5-min Rain = 0
KOD1 150304Z 25003KT 03/M01 A3042 RMK A01 T00321009  RH  075%=      5-min Rain = 0
KOD1 150305Z 25003KT 03/M01 A3042 RMK A01 T00321008  RH  075%=      5-min Rain = 0
KOD1 150306Z 25003KT 03/M01 A3042 RMK A01 T00331007  RH  075%=      5-min Rain = 0
KOD1 150307Z 24003KT 03/M01 A3042 RMK A01 T00341006  RH  075%=      5-min Rain = 0
KOD1 150308Z 24003KT 04/M01 A3042 RMK A01 T00361006  RH  074%=      5-min Rain = 0
KOD1 150309Z 24003KT 04/M01 A3042 RMK A01 T00371006  RH  074%=      5-min Rain = 0
KOD1 150310Z 24003KT 04/M01 A3042 RMK A01 T00381006  RH  073%=      5-min Rain = 0
KOD1 150311Z 24003KT 04/M01 A3042 RMK A01 T00381006  RH  073%=      5-min Rain = 0
KOD1 150312Z 24003KT 04/M01 A3042 RMK A01 T00381007  RH  073%=      5-min Rain = 0
KOD1 150313Z 24003KT 04/M01 A3042 RMK A01 T00381007  RH  073%=      5-min Rain = 0
KOD1 150314Z 24003KT 04/M01 A3042 RMK A01 T00371007  RH  073%=      5-min Rain = 0
KOD1 150315Z 24002KT 04/M01 A3042 RMK A01 T00371007  RH  073%=      5-min Rain = 0
KOD1 150316Z 24002KT 04/M01 A3042 RMK A01 T00361008  RH  073%=      5-min Rain = 0
KOD1 150317Z 24003KT 04/M01 A3042 RMK A01 T00361008  RH  073%=      5-min Rain = 0
KOD1 150318Z 24003KT 04/M01 A3042 RMK A01 T00351008  RH  074%=      5-min Rain = 0
KOD1 150319Z 24003KT 03/M01 A3042 RMK A01 T00341009  RH  074%=      5-min Rain = 0
KOD1 150320Z 24003KT 03/M01 A3042 RMK A01 T00321010  RH  074%=      5-min Rain = 0
KOD1 150321Z 24003KT 03/M01 A3042 RMK A01 T00301011  RH  074%=      5-min Rain = 0
KOD1 150322Z 24003KT 03/M01 A3042 RMK A01 T00271013  RH  075%=      5-min Rain = 0
KOD1 150323Z 24003KT 03/M02 A3042 RMK A01 T00251015  RH  075%=      5-min Rain = 0
KOD1 150324Z 23003KT 02/M02 A3042 RMK A01 T00221016  RH  076%=      5-min Rain = 0
KOD1 150325Z 23004KT 02/M02 A3042 RMK A01 T00201017  RH  076%=      5-min Rain = 0
KOD1 150326Z 22004KT 02/M02 A3042 RMK A01 T00181018  RH  077%=      5-min Rain = 0
KOD1 150327Z 22004KT 02/M02 A3042 RMK A01 T00171019  RH  077%=      5-min Rain = 0
KOD1 150328Z 23004KT 02/M02 A3042 RMK A01 T00161019  RH  078%=      5-min Rain = 0
KOD1 150329Z 23004KT 02/M02 A3042 RMK A01 T00151018  RH  078%=      5-min Rain = 0
KOD1 150330Z 23003KT 02/M02 A3042 RMK A01 T00151018  RH  078%=      5-min Rain = 0
KOD1 150331Z 23003KT 02/M02 A3042 RMK A01 T00151018  RH  079%=      5-min Rain = 0
KOD1 150332Z 23003KT 02/M02 A3042 RMK A01 T00161016  RH  079%=      5-min Rain = 0
KOD1 150333Z 24004KT 02/M02 A3042 RMK A01 T00171015  RH  079%=      5-min Rain = 0
KOD1 150334Z 24004KT 02/M02 A3042 RMK A01 T00181015  RH  079%=      5-min Rain = 0
KOD1 150335Z 24004KT 02/M01 A3042 RMK A01 T00181014  RH  079%=      5-min Rain = 0
KOD1 150336Z 25003KT 02/M01 A3042 RMK A01 T00191014  RH  079%=      5-min Rain = 0
KOD1 150337Z 25003KT 02/M01 A3042 RMK A01 T00201014  RH  078%=      5-min Rain = 0
KOD1 150338Z 25003KT 02/M01 A3042 RMK A01 T00201014  RH  078%=      5-min Rain = 0
KOD1 150339Z 26003KT 02/M01 A3042 RMK A01 T00211014  RH  078%=      5-min Rain = 0
KOD1 150340Z 26003KT 02/M01 A3042 RMK A01 T00211014  RH  078%=      5-min Rain = 0
KOD1 150341Z 26003KT 02/M01 A3042 RMK A01 T00221013  RH  078%=      5-min Rain = 0
KOD1 150342Z 26003KT 02/M01 A3042 RMK A01 T00221013  RH  078%=      5-min Rain = 0
KOD1 150343Z 26003KT 02/M01 A3042 RMK A01 T00221013  RH  077%=      5-min Rain = 0
KOD1 150344Z 26002KT 02/M01 A3042 RMK A01 T00231013  RH  077%=      5-min Rain = 0
KOD1 150345Z 26002KT 02/M01 A3042 RMK A01 T00231013  RH  077%=      5-min Rain = 0
KOD1 150346Z 25002KT 02/M01 A3042 RMK A01 T00231013  RH  077%=      5-min Rain = 0
KOD1 150347Z 25002KT 02/M01 A3042 RMK A01 T00231012  RH  077%=      5-min Rain = 0
KOD1 150348Z 25001KT 02/M01 A3042 RMK A01 T00231013  RH  077%=      5-min Rain = 0
KOD1 150349Z 25001KT 02/M01 A3042 RMK A01 T00231013  RH  077%=      5-min Rain = 0
KOD1 150350Z 25001KT 02/M01 A3042 RMK A01 T00231013  RH  077%=      5-min Rain = 0
KOD1 150351Z 25001KT 02/M01 A3042 RMK A01 T00231013  RH  077%=      5-min Rain = 0
KOD1 150352Z 25002KT 02/M01 A3042 RMK A01 T00231013  RH  077%=      5-min Rain = 0
KOD1 150353Z 25002KT 02/M01 A3042 RMK A01 T00231013  RH  077%=      5-min Rain = 0
KOD1 150354Z 25002KT 02/M01 A3042 RMK A01 T00231013  RH  077%=      5-min Rain = 0
KOD1 150355Z 24002KT 02/M01 A3042 RMK A01 T00231013  RH  077%=      5-min Rain = 0
KOD1 150356Z 24003KT 02/M01 A3042 RMK A01 T00241012  RH  077%=      5-min Rain = 0
KOD1 150357Z 24003KT 02/M01 A3042 RMK A01 T00241012  RH  077%=      5-min Rain = 0
KOD1 150358Z 24003KT 03/M01 A3042 RMK A01 T00251011  RH  077%=      5-min Rain = 0
KOD1 150359Z 24003KT 03/M01 A3042 RMK A01 T00251011  RH  077%=      5-min Rain = 0
KOD1 150400Z 24002KT 03/M01 A3042 RMK A01 T00261010  RH  077%=      5-min Rain = 0
KOD1 150401Z 24002KT 03/M01 A3042 RMK A01 T00261010  RH  077%=      5-min Rain = 0
KOD1 150402Z 24002KT 03/M01 A3042 RMK A01 T00261011  RH  076%=      5-min Rain = 0
KOD1 150403Z 24001KT 03/M01 A3042 RMK A01 T00251012  RH  076%=      5-min Rain = 0
KOD1 150404Z 24001KT 03/M01 A3042 RMK A01 T00251012  RH  076%=      5-min Rain = 0
KOD1 150405Z 23000KT 03/M01 A3042 RMK A01 T00261011  RH  077%=      5-min Rain = 0
KOD1 150406Z 00000KT 03/M01 A3042 RMK A01 T00271010  RH  076%=      5-min Rain = 0
KOD1 150407Z 00000KT 03/M01 A3042 RMK A01 T00271011  RH  076%=      5-min Rain = 0
KOD1 150408Z 00000KT 03/M01 A3042 RMK A01 T00281011  RH  076%=      5-min Rain = 0
KOD1 150409Z 00000KT 03/M01 A3042 RMK A01 T00281011  RH  076%=      5-min Rain = 0
KOD1 150410Z 00000KT 03/M01 A3042 RMK A01 T00281011  RH  075%=      5-min Rain = 0
KOD1 150411Z 00000KT 03/M01 A3042 RMK A01 T00281012  RH  075%=      5-min Rain = 0
KOD1 150412Z 00000KT 03/M01 A3042 RMK A01 T00271013  RH  075%=      5-min Rain = 0
KOD1 150413Z 00000KT 03/M01 A3042 RMK A01 T00271012  RH  076%=      5-min Rain = 0
KOD1 150414Z 00000KT 03/M01 A3042 RMK A01 T00271011  RH  076%=      5-min Rain = 0
KOD1 150415Z 23000KT 03/M01 A3042 RMK A01 T00271011  RH  076%=      5-min Rain = 0
KOD1 150416Z 23001KT 03/M01 A3042 RMK A01 T00271011  RH  076%=      5-min Rain = 0
KOD1 150417Z 23001KT 03/M01 A3042 RMK A01 T00271010  RH  077%=      5-min Rain = 0
KOD1 150418Z 23001KT 03/M01 A3042 RMK A01 T00281009  RH  077%=      5-min Rain = 0
KOD1 150419Z 23001KT 03/M01 A3042 RMK A01 T00291009  RH  076%=      5-min Rain = 0
KOD1 150420Z 23001KT 03/M01 A3042 RMK A01 T00291010  RH  076%=      5-min Rain = 0
KOD1 150421Z 23001KT 03/M01 A3042 RMK A01 T00281009  RH  076%=      5-min Rain = 0
KOD1 150422Z 23001KT 03/M01 A3042 RMK A01 T00291008  RH  076%=      5-min Rain = 0
KOD1 150423Z 23002KT 03/M01 A3042 RMK A01 T00301007  RH  076%=      5-min Rain = 0
KOD1 150424Z 23002KT 03/M01 A3042 RMK A01 T00311008  RH  076%=      5-min Rain = 0
KOD1 150425Z 22002KT 03/M01 A3042 RMK A01 T00311007  RH  076%=      5-min Rain = 0
KOD1 150426Z 22002KT 03/M01 A3043 RMK A01 T00321007  RH  076%=      5-min Rain = 0
KOD1 150427Z 22003KT 03/M01 A3043 RMK A01 T00321008  RH  075%=      5-min Rain = 0
KOD1 150428Z 22003KT 03/M01 A3043 RMK A01 T00321009  RH  075%=      5-min Rain = 0
KOD1 150429Z 22003KT 03/M01 A3043 RMK A01 T00311011  RH  074%=      5-min Rain = 0
KOD1 150430Z 22003KT 03/M01 A3043 RMK A01 T00291012  RH  075%=      5-min Rain = 0
KOD1 150431Z 22003KT 03/M01 A3043 RMK A01 T00281012  RH  075%=      5-min Rain = 0
KOD1 150432Z 22003KT 03/M01 A3043 RMK A01 T00261013  RH  076%=      5-min Rain = 0
KOD1 150433Z 22003KT 02/M02 A3043 RMK A01 T00241015  RH  076%=      5-min Rain = 0
KOD1 150434Z 22003KT 02/M02 A3043 RMK A01 T00221016  RH  076%=      5-min Rain = 0
KOD1 150435Z 22003KT 02/M02 A3043 RMK A01 T00211015  RH  077%=      5-min Rain = 0
KOD1 150436Z 21003KT 02/M02 A3043 RMK A01 T00201015  RH  078%=      5-min Rain = 0
KOD1 150437Z 21002KT 02/M02 A3043 RMK A01 T00191015  RH  078%=      5-min Rain = 0
KOD1 150438Z 21002KT 02/M02 A3043 RMK A01 T00181015  RH  079%=      5-min Rain = 0
KOD1 150439Z 21002KT 02/M02 A3043 RMK A01 T00171016  RH  079%=      5-min Rain = 0
KOD1 150440Z 21002KT 02/M02 A3043 RMK A01 T00161015  RH  080%=      5-min Rain = 0
KOD1 150441Z 21001KT 02/M01 A3043 RMK A01 T00161014  RH  080%=      5-min Rain = 0
KOD1 150442Z 20001KT 02/M01 A3043 RMK A01 T00171013  RH  081%=      5-min Rain = 0
KOD1 150443Z 20000KT 02/M01 A3043 RMK A01 T00171013  RH  080%=      5-min Rain = 0
KOD1 150444Z 00000KT 02/M01 A3043 RMK A01 T00161013  RH  081%=      5-min Rain = 0
KOD1 150445Z 00000KT 02/M01 A3043 RMK A01 T00181011  RH  081%=      5-min Rain = 0
KOD1 150446Z 00000KT 02/M01 A3043 RMK A01 T00191012  RH  080%=      5-min Rain = 0
KOD1 150447Z 15001KT 02/M02 A3043 RMK A01 T00171015  RH  079%=      5-min Rain = 0
KOD1 150448Z 15001KT 02/M02 A3043 RMK A01 T00161015  RH  080%=      5-min Rain = 0
KOD1 150449Z 12001KT 02/M01 A3043 RMK A01 T00181012  RH  081%=      5-min Rain = 0
KOD1 150450Z 12001KT 02/M01 A3043 RMK A01 T00191013  RH  080%=      5-min Rain = 0
KOD1 150451Z 12001KT 02/M01 A3043 RMK A01 T00191012  RH  080%=      5-min Rain = 0
KOD1 150452Z 12001KT 02/M01 A3043 RMK A01 T00201012  RH  079%=      5-min Rain = 0
KOD1 150453Z 12001KT 02/M01 A3043 RMK A01 T00201013  RH  079%=      5-min Rain = 0
KOD1 150454Z 12001KT 02/M01 A3043 RMK A01 T00221010  RH  080%=      5-min Rain = 0
KOD1 150455Z 12001KT 02/M01 A3043 RMK A01 T00231009  RH  079%=      5-min Rain = 0
KOD1 150456Z 12000KT 03/M01 A3043 RMK A01 T00251008  RH  079%=      5-min Rain = 0
KOD1 150457Z 00000KT 03/M01 A3043 RMK A01 T00271007  RH  078%=      5-min Rain = 0
KOD1 150458Z 00000KT 03/M01 A3043 RMK A01 T00281007  RH  078%=      5-min Rain = 0
KOD1 150459Z 00000KT 03/M01 A3043 RMK A01 T00291008  RH  077%=      5-min Rain = 0
KOD1 150500Z 00000KT 03/M01 A3043 RMK A01 T00291009  RH  076%=      5-min Rain = 0
KOD1 150501Z 00000KT 03/M01 A3043 RMK A01 T00291010  RH  076%=      5-min Rain = 0
KOD1 150502Z 21000KT 03/M01 A3043 RMK A01 T00281010  RH  076%=      5-min Rain = 0
KOD1 150503Z 22001KT 03/M01 A3043 RMK A01 T00281011  RH  076%=      5-min Rain = 0
KOD1 150504Z 23002KT 03/M01 A3043 RMK A01 T00271011  RH  076%=      5-min Rain = 0
KOD1 150505Z 22002KT 02/M02 A3043 RMK A01 T00241015  RH  075%=      5-min Rain = 0
KOD1 150506Z 24002KT 02/M02 A3043 RMK A01 T00191020  RH  075%=      5-min Rain = 0
KOD1 150507Z 24002KT 01/M02 A3043 RMK A01 T00141021  RH  077%=      5-min Rain = 0
KOD1 150508Z 25002KT 01/M02 A3043 RMK A01 T00111021  RH  079%=      5-min Rain = 0
KOD1 150509Z 25002KT 01/M02 A3043 RMK A01 T00081022  RH  080%=      5-min Rain = 0
KOD1 150510Z 25002KT 01/M02 A3043 RMK A01 T00051024  RH  081%=      5-min Rain = 0
KOD1 150511Z 25002KT 00/M02 A3043 RMK A01 T00031023  RH  082%=      5-min Rain = 0
KOD1 150512Z 24002KT 00/M02 A3043 RMK A01 T00031023  RH  083%=      5-min Rain = 0
KOD1 150513Z 23003KT 00/M02 A3043 RMK A01 T00021023  RH  084%=      5-min Rain = 0
KOD1 150514Z 23003KT 00/M02 A3043 RMK A01 T00021023  RH  084%=      5-min Rain = 0
KOD1 150515Z 23002KT 00/M02 A3043 RMK A01 T00021022  RH  084%=      5-min Rain = 0
KOD1 150516Z 23002KT 00/M02 A3043 RMK A01 T00021020  RH  085%=      5-min Rain = 0
KOD1 150517Z 22002KT 00/M02 A3043 RMK A01 T00031020  RH  085%=      5-min Rain = 0
KOD1 150518Z 22002KT 00/M02 A3043 RMK A01 T00031020  RH  085%=      5-min Rain = 0
KOD1 150519Z 21002KT 00/M02 A3043 RMK A01 T00041019  RH  085%=      5-min Rain = 0
KOD1 150520Z 21003KT 01/M02 A3043 RMK A01 T00051018  RH  085%=      5-min Rain = 0
KOD1 150521Z 21002KT 01/M02 A3043 RMK A01 T00051018  RH  084%=      5-min Rain = 0
KOD1 150522Z 22002KT 01/M02 A3043 RMK A01 T00051018  RH  084%=      5-min Rain = 0
KOD1 150523Z 22002KT 01/M02 A3043 RMK A01 T00061018  RH  084%=      5-min Rain = 0
KOD1 150524Z 22002KT 01/M02 A3043 RMK A01 T00061018  RH  084%=      5-min Rain = 0
KOD1 150525Z 22004KT 01/M02 A3043 RMK A01 T00061018  RH  083%=      5-min Rain = 0
KOD1 150526Z 22003KT 01/M02 A3044 RMK A01 T00071019  RH  083%=      5-min Rain = 0
KOD1 150527Z 22003KT 01/M02 A3044 RMK A01 T00071019  RH  083%=      5-min Rain = 0
KOD1 150528Z 21004KT 01/M02 A3044 RMK A01 T00071020  RH  083%=      5-min Rain = 0
KOD1 150529Z 21005KT 01/M02 A3044 RMK A01 T00061019  RH  083%=      5-min Rain = 0
KOD1 150530Z 21005KT 01/M02 A3044 RMK A01 T00071018  RH  083%=      5-min Rain = 0
KOD1 150531Z 20005KT 01/M02 A3044 RMK A01 T00071018  RH  083%=      5-min Rain = 0
KOD1 150532Z 20005KT 01/M02 A3044 RMK A01 T00071018  RH  084%=      5-min Rain = 0
KOD1 150533Z 20005KT 01/M02 A3043 RMK A01 T00071016  RH  084%=      5-min Rain = 0
KOD1 150534Z 21004KT 01/M02 A3043 RMK A01 T00081016  RH  084%=      5-min Rain = 0
KOD1 150535Z 20004KT 01/M02 A3043 RMK A01 T00091016  RH  084%=      5-min Rain = 0
KOD1 150536Z 20004KT 01/M02 A3043 RMK A01 T00091015  RH  084%=      5-min Rain = 0
KOD1 150537Z 19004KT 01/M02 A3043 RMK A01 T00091015  RH  084%=      5-min Rain = 0
KOD1 150538Z 20003KT 01/M02 A3044 RMK A01 T00101015  RH  084%=      5-min Rain = 0
KOD1 150539Z 22004KT 01/M02 A3044 RMK A01 T00101015  RH  083%=      5-min Rain = 0
KOD1 150540Z 22005KT 01/M02 A3044 RMK A01 T00091017  RH  083%=      5-min Rain = 0
KOD1 150541Z 23005KT 01/M02 A3044 RMK A01 T00061021  RH  082%=      5-min Rain = 0
KOD1 150542Z 22006KT 00/M02 A3044 RMK A01 T00031024  RH  082%=      5-min Rain = 0
KOD1 150543Z 22005KT 00/M03 A3044 RMK A01 T00011025  RH  083%=      5-min Rain = 0
KOD1 150544Z 22005KT M00/M03 A3044 RMK A01 T10011025  RH  084%=      5-min Rain = 0
KOD1 150545Z 22004KT M00/M02 A3044 RMK A01 T10011024  RH  084%=      5-min Rain = 0
KOD1 150546Z 23004KT M00/M02 A3044 RMK A01 T10011024  RH  085%=      5-min Rain = 0
KOD1 150547Z 23004KT 00/02 A3044 RMK A01 T00-00-23  RH  085%=      5-min Rain = 0
KOD1 150548Z 24005KT 00/02 A3044 RMK A01 T00-00-23  RH  085%=      5-min Rain = 0
KOD1 150549Z 24006KT 00/02 A3044 RMK A01 T00-00-23  RH  085%=      5-min Rain = 0
KOD1 150550Z 25006KT M00/M02 A3044 RMK A01 T10011024  RH  084%=      5-min Rain = 0
KOD1 150551Z 26005KT M00/M03 A3044 RMK A01 T10011025  RH  084%=      5-min Rain = 0
KOD1 150552Z 26005KT M00/M02 A3044 RMK A01 T10021024  RH  085%=      5-min Rain = 0
KOD1 150553Z 26005KT M00/M02 A3044 RMK A01 T10011023  RH  085%=      5-min Rain = 0
KOD1 150554Z 26005KT M00/M02 A3044 RMK A01 T10021023  RH  085%=      5-min Rain = 0
KOD1 150555Z 27004KT M00/M02 A3044 RMK A01 T10021023  RH  085%=      5-min Rain = 0
KOD1 150556Z 27003KT M00/M02 A3044 RMK A01 T10021024  RH  085%=      5-min Rain = 0
KOD1 150557Z 28003KT M00/M02 A3044 RMK A01 T10031024  RH  086%=      5-min Rain = 0
KOD1 150558Z 27003KT M00/M02 A3044 RMK A01 T10031024  RH  086%=      5-min Rain = 0
KOD1 150559Z 27003KT M00/M02 A3044 RMK A01 T10041024  RH  086%=      5-min Rain = 0

Page generated in 0.1414 seconds.